Time,TemperatureF,DewpointF,PressureIn,WindDirection,WindDirectionDegrees,WindSpeedMPH,WindSpeedGustMPH,Humidity,HourlyPrecipIn,Conditions,Clouds,dailyrainin,SoftwareType,DateUTC
2013-10-21 00:01:00,50.7,43.4,29.99,SSW,202,0.0,1.0,76,0.00,,,0.00,Wunderground v.1.15,2013-10-21 04:01:00,
2013-10-21 00:02:00,50.7,43.4,29.99,SSW,202,0.0,1.0,76,0.00,,,0.00,Wunderground v.1.15,2013-10-21 04:02:00,
2013-10-21 00:03:00,50.7,43.4,29.99,SSW,199,0.0,1.0,76,0.00,,,0.00,Wunderground v.1.15,2013-10-21 04:03:00,
2013-10-21 00:04:00,50.7,43.4,29.99,SSW,195,0.0,1.0,76,0.00,,,0.00,Wunderground v.1.15,2013-10-21 04:04:00,
2013-10-21 00:07:00,50.7,43.4,29.99,SSW,195,0.0,1.0,76,0.00,,,0.00,Wunderground v.1.15,2013-10-21 04:07:00,
2013-10-21 00:08:00,50.7,43.4,29.99,SSW,195,0.0,1.0,76,0.00,,,0.00,Wunderground v.1.15,2013-10-21 04:08:00,
2013-10-21 00:09:00,50.7,43.4,29.99,South,189,0.0,3.0,76,0.00,,,0.00,Wunderground v.1.15,2013-10-21 04:09:00,
2013-10-21 00:10:00,50.7,43.8,29.99,South,182,0.0,0.0,77,0.00,,,0.00,Wunderground v.1.15,2013-10-21 04:10:00,
2013-10-21 00:12:00,50.6,43.3,29.99,South,182,0.0,0.0,76,0.00,,,0.00,Wunderground v.1.15,2013-10-21 04:12:00,
2013-10-21 00:15:00,50.6,43.7,29.99,South,182,0.0,0.0,77,0.00,,,0.00,Wunderground v.1.15,2013-10-21 04:15:00,
2013-10-21 00:16:00,50.4,43.5,29.99,South,182,0.0,0.0,77,0.00,,,0.00,Wunderground v.1.15,2013-10-21 04:16:00,
2013-10-21 00:17:00,50.4,43.5,29.99,South,191,0.0,0.0,77,0.00,,,0.00,Wunderground v.1.15,2013-10-21 04:17:00,
2013-10-21 00:19:00,50.4,43.5,29.99,South,191,0.0,0.0,77,0.00,,,0.00,Wunderground v.1.15,2013-10-21 04:19:00,
2013-10-21 00:22:00,50.4,43.5,29.99,South,191,0.0,0.0,77,0.00,,,0.00,Wunderground v.1.15,2013-10-21 04:22:00,
2013-10-21 00:24:00,50.3,43.4,29.99,South,191,0.0,0.0,77,0.00,,,0.00,Wunderground v.1.15,2013-10-21 04:24:00,
2013-10-21 00:25:00,50.3,43.4,29.99,South,191,0.0,0.0,77,0.00,,,0.00,Wunderground v.1.15,2013-10-21 04:25:00,
2013-10-21 00:27:00,50.3,43.4,29.99,South,191,0.0,0.0,77,0.00,,,0.00,Wunderground v.1.15,2013-10-21 04:27:00,
2013-10-21 00:29:00,50.1,43.5,29.99,South,191,0.0,0.0,78,0.00,,,0.00,Wunderground v.1.15,2013-10-21 04:29:00,
2013-10-21 00:31:00,50.0,43.4,29.99,South,191,0.0,0.0,78,0.00,,,0.00,Wunderground v.1.15,2013-10-21 04:31:00,
2013-10-21 00:34:00,49.9,43.3,29.99,South,191,0.0,0.0,78,0.00,,,0.00,Wunderground v.1.15,2013-10-21 04:34:00,
2013-10-21 00:36:00,49.7,43.1,29.99,South,191,0.0,0.0,78,0.00,,,0.00,Wunderground v.1.15,2013-10-21 04:36:00,
2013-10-21 00:37:00,49.7,43.5,29.99,South,191,0.0,0.0,79,0.00,,,0.00,Wunderground v.1.15,2013-10-21 04:37:00,
2013-10-21 00:38:00,49.6,43.4,29.99,South,191,0.0,0.0,79,0.00,,,0.00,Wunderground v.1.15,2013-10-21 04:38:00,
2013-10-21 00:40:00,49.4,43.2,29.99,South,191,0.0,0.0,79,0.00,,,0.00,Wunderground v.1.15,2013-10-21 04:40:00,
2013-10-21 00:41:00,49.3,43.1,29.99,South,191,0.0,0.0,79,0.00,,,0.00,Wunderground v.1.15,2013-10-21 04:41:00,
2013-10-21 00:44:00,49.1,43.2,29.99,South,191,0.0,0.0,80,0.00,,,0.00,Wunderground v.1.15,2013-10-21 04:44:00,
2013-10-21 00:47:00,48.8,42.9,29.99,South,191,0.0,0.0,80,0.00,,,0.00,Wunderground v.1.15,2013-10-21 04:47:00,
2013-10-21 00:48:00,48.7,43.1,29.99,South,191,0.0,0.0,81,0.00,,,0.00,Wunderground v.1.15,2013-10-21 04:48:00,
2013-10-21 00:51:00,48.2,42.6,29.99,South,191,0.0,0.0,81,0.00,,,0.00,Wunderground v.1.15,2013-10-21 04:51:00,
2013-10-21 00:52:00,48.1,42.5,29.99,South,191,0.0,0.0,81,0.00,,,0.00,Wunderground v.1.15,2013-10-21 04:52:00,
2013-10-21 00:54:00,47.6,42.4,29.99,South,191,0.0,0.0,82,0.00,,,0.00,Wunderground v.1.15,2013-10-21 04:54:00,
2013-10-21 00:55:00,47.5,42.3,29.99,South,191,0.0,0.0,82,0.00,,,0.00,Wunderground v.1.15,2013-10-21 04:55:00,
2013-10-21 00:56:00,47.3,42.4,29.99,South,191,0.0,0.0,83,0.00,,,0.00,Wunderground v.1.15,2013-10-21 04:56:00,
2013-10-21 00:57:00,47.0,42.1,29.99,South,191,0.0,0.0,83,0.00,,,0.00,Wunderground v.1.15,2013-10-21 04:57:00,
2013-10-21 00:58:00,46.9,42.3,29.99,South,191,0.0,0.0,84,0.00,,,0.00,Wunderground v.1.15,2013-10-21 04:58:00,
2013-10-21 00:59:00,46.6,42.0,29.99,South,191,0.0,0.0,84,0.00,,,0.00,Wunderground v.1.15,2013-10-21 04:59:00,
2013-10-21 01:02:00,46.2,41.9,29.99,South,191,0.0,0.0,85,0.00,,,0.00,Wunderground v.1.15,2013-10-21 05:02:00,
2013-10-21 01:05:00,45.7,41.8,29.99,South,191,0.0,0.0,86,0.00,,,0.00,Wunderground v.1.15,2013-10-21 05:05:00,
2013-10-21 01:06:00,45.6,41.7,29.99,South,191,0.0,0.0,86,0.00,,,0.00,Wunderground v.1.15,2013-10-21 05:06:00,
2013-10-21 01:11:00,45.1,41.5,29.99,South,191,0.0,0.0,87,0.00,,,0.00,Wunderground v.1.15,2013-10-21 05:11:00,
2013-10-21 01:12:00,45.0,41.4,29.99,South,191,0.0,0.0,87,0.00,,,0.00,Wunderground v.1.15,2013-10-21 05:12:00,
2013-10-21 01:13:00,45.0,41.4,29.99,South,191,0.0,0.0,87,0.00,,,0.00,Wunderground v.1.15,2013-10-21 05:13:00,
2013-10-21 01:14:00,44.8,41.5,29.99,South,191,0.0,0.0,88,0.00,,,0.00,Wunderground v.1.15,2013-10-21 05:14:00,
2013-10-21 01:16:00,44.8,41.5,29.99,South,191,0.0,0.0,88,0.00,,,0.00,Wunderground v.1.15,2013-10-21 05:16:00,
2013-10-21 01:18:00,44.8,41.5,29.99,South,191,0.0,0.0,88,0.00,,,0.00,Wunderground v.1.15,2013-10-21 05:18:00,
2013-10-21 01:20:00,44.7,41.7,29.99,South,191,0.0,0.0,89,0.00,,,0.00,Wunderground v.1.15,2013-10-21 05:20:00,
2013-10-21 01:21:00,44.7,41.7,29.99,South,191,0.0,0.0,89,0.00,,,0.00,Wunderground v.1.15,2013-10-21 05:21:00,
2013-10-21 01:26:00,44.4,41.4,29.99,South,191,0.0,0.0,89,0.00,,,0.00,Wunderground v.1.15,2013-10-21 05:26:00,
2013-10-21 01:27:00,44.4,41.4,29.99,South,191,0.0,0.0,89,0.00,,,0.00,Wunderground v.1.15,2013-10-21 05:27:00,
2013-10-21 01:28:00,44.4,41.4,29.99,South,191,0.0,0.0,89,0.00,,,0.00,Wunderground v.1.15,2013-10-21 05:28:00,
2013-10-21 01:30:00,44.3,41.6,29.98,South,191,0.0,0.0,90,0.00,,,0.00,Wunderground v.1.15,2013-10-21 05:30:00,
2013-10-21 01:31:00,44.3,41.6,29.98,South,191,0.0,0.0,90,0.00,,,0.00,Wunderground v.1.15,2013-10-21 05:31:00,
2013-10-21 01:33:00,44.3,41.6,29.98,South,191,0.0,0.0,90,0.00,,,0.00,Wunderground v.1.15,2013-10-21 05:33:00,
2013-10-21 01:34:00,44.4,41.7,29.98,South,191,0.0,0.0,90,0.00,,,0.00,Wunderground v.1.15,2013-10-21 05:34:00,
2013-10-21 01:35:00,44.6,42.1,29.98,South,191,0.0,0.0,91,0.00,,,0.00,Wunderground v.1.15,2013-10-21 05:35:00,
2013-10-21 01:39:00,44.8,42.0,29.98,South,186,0.0,0.0,90,0.00,,,0.00,Wunderground v.1.15,2013-10-21 05:39:00,
2013-10-21 01:41:00,44.8,41.8,29.98,South,186,0.0,0.0,89,0.00,,,0.00,Wunderground v.1.15,2013-10-21 05:41:00,
2013-10-21 01:42:00,45.0,42.2,29.98,South,186,0.0,0.0,90,0.00,,,0.00,Wunderground v.1.15,2013-10-21 05:42:00,
2013-10-21 01:44:00,45.1,42.1,29.98,South,186,0.0,0.0,89,0.00,,,0.00,Wunderground v.1.15,2013-10-21 05:44:00,
2013-10-21 01:45:00,45.1,42.1,29.99,South,186,0.0,0.0,89,0.00,,,0.00,Wunderground v.1.15,2013-10-21 05:45:00,
2013-10-21 01:48:00,45.4,42.3,29.99,South,186,0.0,0.0,89,0.00,,,0.00,Wunderground v.1.15,2013-10-21 05:48:00,
2013-10-21 01:49:00,45.4,42.3,29.99,South,186,0.0,0.0,89,0.00,,,0.00,Wunderground v.1.15,2013-10-21 05:49:00,
2013-10-21 01:51:00,45.4,42.1,29.99,South,186,0.0,0.0,88,0.00,,,0.00,Wunderground v.1.15,2013-10-21 05:51:00,
2013-10-21 01:54:00,45.4,42.1,29.99,South,186,0.0,0.0,88,0.00,,,0.00,Wunderground v.1.15,2013-10-21 05:54:00,
2013-10-21 01:56:00,45.4,42.1,29.99,South,186,0.0,0.0,88,0.00,,,0.00,Wunderground v.1.15,2013-10-21 05:56:00,
2013-10-21 01:57:00,45.4,42.1,29.99,South,186,0.0,0.0,88,0.00,,,0.00,Wunderground v.1.15,2013-10-21 05:57:00,
2013-10-21 01:58:00,45.3,42.0,29.99,South,186,0.0,0.0,88,0.00,,,0.00,Wunderground v.1.15,2013-10-21 05:58:00,
2013-10-21 02:01:00,45.1,41.8,29.99,South,186,0.0,0.0,88,0.00,,,0.00,Wunderground v.1.15,2013-10-21 06:01:00,
2013-10-21 02:03:00,45.0,41.7,29.99,South,186,0.0,0.0,88,0.00,,,0.00,Wunderground v.1.15,2013-10-21 06:03:00,
2013-10-21 02:04:00,44.8,41.5,29.99,South,186,0.0,0.0,88,0.00,,,0.00,Wunderground v.1.15,2013-10-21 06:04:00,
2013-10-21 02:06:00,44.7,41.4,29.99,South,186,0.0,0.0,88,0.00,,,0.00,Wunderground v.1.15,2013-10-21 06:06:00,
2013-10-21 02:08:00,44.7,41.7,29.99,South,186,0.0,0.0,89,0.00,,,0.00,Wunderground v.1.15,2013-10-21 06:08:00,
2013-10-21 02:09:00,44.7,41.7,29.99,South,186,0.0,0.0,89,0.00,,,0.00,Wunderground v.1.15,2013-10-21 06:09:00,
2013-10-21 02:10:00,44.8,41.8,29.99,South,186,0.0,0.0,89,0.00,,,0.00,Wunderground v.1.15,2013-10-21 06:10:00,
2013-10-21 02:14:00,44.8,41.8,29.99,South,186,0.0,0.0,89,0.00,,,0.00,Wunderground v.1.15,2013-10-21 06:14:00,
2013-10-21 02:15:00,44.8,41.8,29.99,South,186,0.0,0.0,89,0.00,,,0.00,Wunderground v.1.15,2013-10-21 06:15:00,
2013-10-21 02:16:00,44.8,41.8,29.99,South,186,0.0,0.0,89,0.00,,,0.00,Wunderground v.1.15,2013-10-21 06:16:00,
2013-10-21 02:17:00,44.7,41.7,29.99,South,186,0.0,0.0,89,0.00,,,0.00,Wunderground v.1.15,2013-10-21 06:17:00,
2013-10-21 02:21:00,44.6,41.6,29.99,South,186,0.0,0.0,89,0.00,,,0.00,Wunderground v.1.15,2013-10-21 06:21:00,
2013-10-21 02:22:00,44.4,41.4,29.99,South,186,0.0,0.0,89,0.00,,,0.00,Wunderground v.1.15,2013-10-21 06:22:00,
2013-10-21 02:23:00,44.4,41.4,29.99,South,186,0.0,0.0,89,0.00,,,0.00,Wunderground v.1.15,2013-10-21 06:23:00,
2013-10-21 02:25:00,44.3,41.6,29.99,South,186,0.0,0.0,90,0.00,,,0.00,Wunderground v.1.15,2013-10-21 06:25:00,
2013-10-21 02:27:00,44.3,41.6,29.99,South,186,0.0,0.0,90,0.00,,,0.00,Wunderground v.1.15,2013-10-21 06:27:00,
2013-10-21 02:28:00,44.3,41.8,29.99,South,186,0.0,0.0,91,0.00,,,0.00,Wunderground v.1.15,2013-10-21 06:28:00,
2013-10-21 02:29:00,44.3,41.8,29.99,South,186,0.0,0.0,91,0.00,,,0.00,Wunderground v.1.15,2013-10-21 06:29:00,
2013-10-21 02:32:00,44.1,41.6,29.99,South,186,0.0,0.0,91,0.00,,,0.00,Wunderground v.1.15,2013-10-21 06:32:00,
2013-10-21 02:33:00,44.0,41.5,29.99,South,186,0.0,0.0,91,0.00,,,0.00,Wunderground v.1.15,2013-10-21 06:33:00,
2013-10-21 02:35:00,44.0,41.5,29.99,South,186,0.0,0.0,91,0.00,,,0.00,Wunderground v.1.15,2013-10-21 06:35:00,
2013-10-21 02:38:00,44.0,41.5,29.99,South,186,0.0,0.0,91,0.00,,,0.00,Wunderground v.1.15,2013-10-21 06:38:00,
2013-10-21 02:39:00,44.0,41.5,29.99,South,186,0.0,0.0,91,0.00,,,0.00,Wunderground v.1.15,2013-10-21 06:39:00,
2013-10-21 02:42:00,44.0,41.8,29.99,South,186,0.0,0.0,92,0.00,,,0.00,Wunderground v.1.15,2013-10-21 06:42:00,
2013-10-21 02:43:00,44.0,41.8,29.99,South,186,0.0,0.0,92,0.00,,,0.00,Wunderground v.1.15,2013-10-21 06:43:00,
2013-10-21 02:44:00,44.0,41.8,29.99,South,186,0.0,0.0,92,0.00,,,0.00,Wunderground v.1.15,2013-10-21 06:44:00,
2013-10-21 02:49:00,44.0,41.8,29.99,South,186,0.0,0.0,92,0.00,,,0.00,Wunderground v.1.15,2013-10-21 06:49:00,
2013-10-21 02:50:00,43.8,41.3,29.99,South,186,0.0,0.0,91,0.00,,,0.00,Wunderground v.1.15,2013-10-21 06:50:00,
2013-10-21 02:51:00,43.8,41.3,29.99,South,186,0.0,0.0,91,0.00,,,0.00,Wunderground v.1.15,2013-10-21 06:51:00,
2013-10-21 02:52:00,43.8,41.3,29.99,South,186,0.0,0.0,91,0.00,,,0.00,Wunderground v.1.15,2013-10-21 06:52:00,
2013-10-21 02:53:00,43.8,41.3,29.99,South,186,0.0,0.0,91,0.00,,,0.00,Wunderground v.1.15,2013-10-21 06:53:00,
2013-10-21 02:57:00,43.7,41.2,29.99,South,186,0.0,0.0,91,0.00,,,0.00,Wunderground v.1.15,2013-10-21 06:57:00,
2013-10-21 02:58:00,43.7,41.2,29.99,South,186,0.0,0.0,91,0.00,,,0.00,Wunderground v.1.15,2013-10-21 06:58:00,
2013-10-21 02:59:00,43.7,41.2,29.99,South,186,0.0,0.0,91,0.00,,,0.00,Wunderground v.1.15,2013-10-21 06:59:00,
2013-10-21 03:03:00,43.4,40.9,30.00,South,186,0.0,0.0,91,0.00,,,0.00,Wunderground v.1.15,2013-10-21 07:03:00,
2013-10-21 03:04:00,43.4,40.9,30.00,South,186,0.0,0.0,91,0.00,,,0.00,Wunderground v.1.15,2013-10-21 07:04:00,
2013-10-21 03:05:00,43.3,40.8,30.00,South,186,0.0,0.0,91,0.00,,,0.00,Wunderground v.1.15,2013-10-21 07:05:00,
2013-10-21 03:06:00,43.3,41.1,30.00,South,186,0.0,0.0,92,0.00,,,0.00,Wunderground v.1.15,2013-10-21 07:06:00,
2013-10-21 03:07:00,43.1,40.9,30.00,South,186,0.0,0.0,92,0.00,,,0.00,Wunderground v.1.15,2013-10-21 07:07:00,
2013-10-21 03:11:00,42.8,40.6,30.00,South,186,0.0,0.0,92,0.00,,,0.00,Wunderground v.1.15,2013-10-21 07:11:00,
2013-10-21 03:12:00,42.8,40.6,30.00,South,186,0.0,0.0,92,0.00,,,0.00,Wunderground v.1.15,2013-10-21 07:12:00,
2013-10-21 03:13:00,42.7,40.5,30.00,South,186,0.0,0.0,92,0.00,,,0.00,Wunderground v.1.15,2013-10-21 07:13:00,
2013-10-21 03:14:00,42.7,40.5,30.00,South,186,0.0,0.0,92,0.00,,,0.00,Wunderground v.1.15,2013-10-21 07:14:00,
2013-10-21 03:17:00,42.6,40.7,30.00,South,186,0.0,0.0,93,0.00,,,0.00,Wunderground v.1.15,2013-10-21 07:17:00,
2013-10-21 03:19:00,42.6,40.7,30.00,South,186,0.0,0.0,93,0.00,,,0.00,Wunderground v.1.15,2013-10-21 07:19:00,
2013-10-21 03:21:00,42.4,40.5,30.00,South,186,0.0,0.0,93,0.00,,,0.00,Wunderground v.1.15,2013-10-21 07:21:00,
2013-10-21 03:22:00,42.4,40.5,30.00,South,186,0.0,0.0,93,0.00,,,0.00,Wunderground v.1.15,2013-10-21 07:22:00,
2013-10-21 03:24:00,42.4,40.5,30.00,South,186,0.0,0.0,93,0.00,,,0.00,Wunderground v.1.15,2013-10-21 07:24:00,
2013-10-21 03:25:00,42.3,40.4,30.00,South,186,0.0,0.0,93,0.00,,,0.00,Wunderground v.1.15,2013-10-21 07:25:00,
2013-10-21 03:27:00,42.3,40.4,30.00,South,186,0.0,0.0,93,0.00,,,0.00,Wunderground v.1.15,2013-10-21 07:27:00,
2013-10-21 03:28:00,42.3,40.7,30.00,South,186,0.0,0.0,94,0.00,,,0.00,Wunderground v.1.15,2013-10-21 07:28:00,
2013-10-21 03:30:00,42.1,40.5,30.00,South,186,0.0,0.0,94,0.00,,,0.00,Wunderground v.1.15,2013-10-21 07:30:00,
2013-10-21 03:31:00,42.1,40.5,30.00,South,186,0.0,0.0,94,0.00,,,0.00,Wunderground v.1.15,2013-10-21 07:31:00,
2013-10-21 03:35:00,42.0,40.4,30.00,South,186,0.0,0.0,94,0.00,,,0.00,Wunderground v.1.15,2013-10-21 07:35:00,
2013-10-21 03:37:00,41.8,40.2,30.00,South,186,0.0,0.0,94,0.00,,,0.00,Wunderground v.1.15,2013-10-21 07:37:00,
2013-10-21 03:38:00,41.8,40.2,30.00,South,186,0.0,0.0,94,0.00,,,0.00,Wunderground v.1.15,2013-10-21 07:38:00,
2013-10-21 03:39:00,41.8,40.2,30.00,South,186,0.0,0.0,94,0.00,,,0.00,Wunderground v.1.15,2013-10-21 07:39:00,
2013-10-21 03:43:00,41.7,40.4,30.00,South,186,0.0,0.0,95,0.00,,,0.00,Wunderground v.1.15,2013-10-21 07:43:00,
2013-10-21 03:45:00,41.7,40.4,29.99,South,186,0.0,0.0,95,0.00,,,0.00,Wunderground v.1.15,2013-10-21 07:45:00,
2013-10-21 03:47:00,41.6,40.3,29.99,South,186,0.0,0.0,95,0.00,,,0.00,Wunderground v.1.15,2013-10-21 07:47:00,
2013-10-21 03:50:00,41.6,40.3,29.99,South,186,0.0,0.0,95,0.00,,,0.00,Wunderground v.1.15,2013-10-21 07:50:00,
2013-10-21 03:51:00,41.4,40.1,29.99,South,186,0.0,0.0,95,0.00,,,0.00,Wunderground v.1.15,2013-10-21 07:51:00,
2013-10-21 03:56:00,41.3,40.0,29.99,South,186,0.0,0.0,95,0.00,,,0.00,Wunderground v.1.15,2013-10-21 07:56:00,
2013-10-21 03:58:00,41.3,40.0,29.99,South,186,0.0,0.0,95,0.00,,,0.00,Wunderground v.1.15,2013-10-21 07:58:00,
2013-10-21 04:00:00,41.3,40.0,29.99,South,186,0.0,0.0,95,0.00,,,0.00,Wunderground v.1.15,2013-10-21 08:00:00,
2013-10-21 04:03:00,41.1,39.8,29.99,South,186,0.0,0.0,95,0.00,,,0.00,Wunderground v.1.15,2013-10-21 08:03:00,
2013-10-21 04:04:00,41.1,39.8,29.99,South,186,0.0,0.0,95,0.00,,,0.00,Wunderground v.1.15,2013-10-21 08:04:00,
2013-10-21 04:05:00,41.1,39.8,29.99,South,186,0.0,0.0,95,0.00,,,0.00,Wunderground v.1.15,2013-10-21 08:05:00,
2013-10-21 04:09:00,41.0,39.7,29.99,South,186,0.0,0.0,95,0.00,,,0.00,Wunderground v.1.15,2013-10-21 08:09:00,
2013-10-21 04:11:00,40.8,39.5,29.99,South,186,0.0,0.0,95,0.00,,,0.00,Wunderground v.1.15,2013-10-21 08:11:00,
2013-10-21 04:13:00,40.8,39.7,29.99,South,186,0.0,0.0,96,0.00,,,0.00,Wunderground v.1.15,2013-10-21 08:13:00,
2013-10-21 04:14:00,40.8,39.7,29.99,South,186,0.0,0.0,96,0.00,,,0.00,Wunderground v.1.15,2013-10-21 08:14:00,
2013-10-21 04:16:00,40.8,39.7,29.99,South,186,0.0,0.0,96,0.00,,,0.00,Wunderground v.1.15,2013-10-21 08:16:00,
2013-10-21 04:17:00,40.7,39.6,29.99,South,186,0.0,0.0,96,0.00,,,0.00,Wunderground v.1.15,2013-10-21 08:17:00,
2013-10-21 04:19:00,40.7,39.6,29.99,South,186,0.0,0.0,96,0.00,,,0.00,Wunderground v.1.15,2013-10-21 08:19:00,
2013-10-21 04:20:00,40.7,39.6,29.99,South,186,0.0,0.0,96,0.00,,,0.00,Wunderground v.1.15,2013-10-21 08:20:00,
2013-10-21 04:22:00,40.8,39.7,29.99,South,186,0.0,0.0,96,0.00,,,0.00,Wunderground v.1.15,2013-10-21 08:22:00,
2013-10-21 04:24:00,40.8,39.7,29.99,South,186,0.0,0.0,96,0.00,,,0.00,Wunderground v.1.15,2013-10-21 08:24:00,
2013-10-21 04:26:00,40.8,39.7,29.99,South,186,0.0,0.0,96,0.00,,,0.00,Wunderground v.1.15,2013-10-21 08:26:00,
2013-10-21 04:27:00,40.8,39.7,29.99,South,186,0.0,0.0,96,0.00,,,0.00,Wunderground v.1.15,2013-10-21 08:27:00,
2013-10-21 04:31:00,40.8,39.7,29.99,South,186,0.0,0.0,96,0.00,,,0.00,Wunderground v.1.15,2013-10-21 08:31:00,
2013-10-21 04:32:00,40.8,40.0,29.99,South,186,0.0,0.0,97,0.00,,,0.00,Wunderground v.1.15,2013-10-21 08:32:00,
2013-10-21 04:33:00,40.8,39.7,29.99,South,186,0.0,0.0,96,0.00,,,0.00,Wunderground v.1.15,2013-10-21 08:33:00,
2013-10-21 04:34:00,40.8,40.0,29.99,South,186,0.0,0.0,97,0.00,,,0.00,Wunderground v.1.15,2013-10-21 08:34:00,
2013-10-21 04:36:00,40.8,40.0,29.99,South,186,0.0,0.0,97,0.00,,,0.00,Wunderground v.1.15,2013-10-21 08:36:00,
2013-10-21 04:37:00,40.8,40.0,29.99,South,186,0.0,0.0,97,0.00,,,0.00,Wunderground v.1.15,2013-10-21 08:37:00,
2013-10-21 04:40:00,40.8,40.0,29.99,South,186,0.0,0.0,97,0.00,,,0.00,Wunderground v.1.15,2013-10-21 08:40:00,
2013-10-21 04:41:00,40.8,40.0,29.99,South,186,0.0,0.0,97,0.00,,,0.00,Wunderground v.1.15,2013-10-21 08:41:00,
2013-10-21 04:43:00,40.8,40.0,29.99,South,186,0.0,0.0,97,0.00,,,0.00,Wunderground v.1.15,2013-10-21 08:43:00,
2013-10-21 04:44:00,40.8,40.0,29.99,South,186,0.0,0.0,97,0.00,,,0.00,Wunderground v.1.15,2013-10-21 08:44:00,
2013-10-21 04:46:00,40.7,39.9,29.99,South,186,0.0,0.0,97,0.00,,,0.00,Wunderground v.1.15,2013-10-21 08:46:00,
2013-10-21 04:49:00,40.7,39.9,29.99,South,186,0.0,0.0,97,0.00,,,0.00,Wunderground v.1.15,2013-10-21 08:49:00,
2013-10-21 04:50:00,40.6,39.8,29.99,South,186,0.0,0.0,97,0.00,,,0.00,Wunderground v.1.15,2013-10-21 08:50:00,
2013-10-21 04:52:00,40.6,39.8,29.99,South,186,0.0,0.0,97,0.00,,,0.00,Wunderground v.1.15,2013-10-21 08:52:00,
2013-10-21 04:54:00,40.6,39.8,29.99,South,186,0.0,0.0,97,0.00,,,0.00,Wunderground v.1.15,2013-10-21 08:54:00,
2013-10-21 04:56:00,40.6,39.8,29.99,South,186,0.0,0.0,97,0.00,,,0.00,Wunderground v.1.15,2013-10-21 08:56:00,
2013-10-21 04:57:00,40.6,39.8,29.99,South,186,0.0,0.0,97,0.00,,,0.00,Wunderground v.1.15,2013-10-21 08:57:00,
2013-10-21 04:58:00,40.6,39.8,29.99,South,186,0.0,0.0,97,0.00,,,0.00,Wunderground v.1.15,2013-10-21 08:58:00,
2013-10-21 04:59:00,40.6,39.8,29.99,South,186,0.0,0.0,97,0.00,,,0.00,Wunderground v.1.15,2013-10-21 08:59:00,
2013-10-21 05:00:00,40.6,39.8,29.99,South,186,0.0,0.0,97,0.00,,,0.00,Wunderground v.1.15,2013-10-21 09:00:00,
2013-10-21 05:04:00,40.6,39.8,29.99,South,186,0.0,0.0,97,0.00,,,0.00,Wunderground v.1.15,2013-10-21 09:04:00,
2013-10-21 05:06:00,40.6,39.8,29.99,South,186,0.0,0.0,97,0.00,,,0.00,Wunderground v.1.15,2013-10-21 09:06:00,
2013-10-21 05:07:00,40.6,39.8,29.99,South,186,0.0,0.0,97,0.00,,,0.00,Wunderground v.1.15,2013-10-21 09:07:00,
2013-10-21 05:08:00,40.6,39.8,29.99,South,186,0.0,0.0,97,0.00,,,0.00,Wunderground v.1.15,2013-10-21 09:08:00,
2013-10-21 05:10:00,40.4,39.6,29.99,South,186,0.0,0.0,97,0.00,,,0.00,Wunderground v.1.15,2013-10-21 09:10:00,
2013-10-21 05:12:00,40.4,39.6,29.99,South,188,0.0,0.0,97,0.00,,,0.00,Wunderground v.1.15,2013-10-21 09:12:00,
2013-10-21 05:14:00,40.6,40.1,29.99,South,188,0.0,0.0,98,0.00,,,0.00,Wunderground v.1.15,2013-10-21 09:14:00,
2013-10-21 05:15:00,40.7,40.2,29.99,South,188,0.0,0.0,98,0.00,,,0.00,Wunderground v.1.15,2013-10-21 09:15:00,
2013-10-21 05:18:00,40.7,40.2,29.99,South,188,0.0,0.0,98,0.00,,,0.00,Wunderground v.1.15,2013-10-21 09:18:00,
2013-10-21 05:21:00,41.0,40.5,29.99,South,188,0.0,0.0,98,0.00,,,0.00,Wunderground v.1.15,2013-10-21 09:21:00,
2013-10-21 05:22:00,41.0,40.5,29.99,South,188,0.0,0.0,98,0.00,,,0.00,Wunderground v.1.15,2013-10-21 09:22:00,
2013-10-21 05:23:00,41.1,40.6,29.99,South,188,0.0,0.0,98,0.00,,,0.00,Wunderground v.1.15,2013-10-21 09:23:00,
2013-10-21 05:24:00,41.1,40.6,29.99,South,188,0.0,0.0,98,0.00,,,0.00,Wunderground v.1.15,2013-10-21 09:24:00,
2013-10-21 05:27:00,41.3,40.8,29.99,South,188,0.0,0.0,98,0.00,,,0.00,Wunderground v.1.15,2013-10-21 09:27:00,
2013-10-21 05:29:00,41.3,40.8,29.99,South,188,0.0,0.0,98,0.00,,,0.00,Wunderground v.1.15,2013-10-21 09:29:00,
2013-10-21 05:32:00,41.4,40.9,29.99,South,188,0.0,0.0,98,0.00,,,0.00,Wunderground v.1.15,2013-10-21 09:32:00,
2013-10-21 05:33:00,41.4,40.9,29.99,South,188,0.0,0.0,98,0.00,,,0.00,Wunderground v.1.15,2013-10-21 09:33:00,
2013-10-21 05:34:00,41.6,41.1,29.99,South,188,0.0,0.0,98,0.00,,,0.00,Wunderground v.1.15,2013-10-21 09:34:00,
2013-10-21 05:36:00,41.7,41.2,29.99,SSW,193,0.0,0.0,98,0.00,,,0.00,Wunderground v.1.15,2013-10-21 09:36:00,
2013-10-21 05:38:00,41.7,41.2,29.99,SW,234,0.0,0.0,98,0.00,,,0.00,Wunderground v.1.15,2013-10-21 09:38:00,
2013-10-21 05:39:00,41.8,41.3,29.99,WSW,258,0.0,0.0,98,0.00,,,0.00,Wunderground v.1.15,2013-10-21 09:39:00,
2013-10-21 05:42:00,41.8,41.0,29.99,WSW,258,0.0,0.0,97,0.00,,,0.00,Wunderground v.1.15,2013-10-21 09:42:00,
2013-10-21 05:44:00,42.0,41.2,29.99,SW,222,0.0,1.0,97,0.00,,,0.00,Wunderground v.1.15,2013-10-21 09:44:00,
2013-10-21 05:47:00,42.1,41.3,29.99,SW,223,0.0,1.0,97,0.00,,,0.00,Wunderground v.1.15,2013-10-21 09:47:00,
2013-10-21 05:48:00,42.1,41.3,29.99,SW,223,0.0,1.0,97,0.00,,,0.00,Wunderground v.1.15,2013-10-21 09:48:00,
2013-10-21 05:49:00,42.1,41.3,29.99,SW,222,0.0,1.0,97,0.00,,,0.00,Wunderground v.1.15,2013-10-21 09:49:00,
2013-10-21 05:50:00,42.3,41.5,29.99,SW,222,0.0,0.0,97,0.00,,,0.00,Wunderground v.1.15,2013-10-21 09:50:00,
2013-10-21 05:52:00,42.4,41.6,29.99,SSW,192,0.0,1.0,97,0.00,,,0.00,Wunderground v.1.15,2013-10-21 09:52:00,
2013-10-21 05:54:00,42.6,41.8,29.99,SSE,151,0.0,1.0,97,0.00,,,0.00,Wunderground v.1.15,2013-10-21 09:54:00,
2013-10-21 05:55:00,42.7,41.9,29.99,SW,226,0.0,1.0,97,0.00,,,0.00,Wunderground v.1.15,2013-10-21 09:55:00,
2013-10-21 05:59:00,43.1,42.0,29.99,SW,226,0.0,1.0,96,0.00,,,0.00,Wunderground v.1.15,2013-10-21 09:59:00,
2013-10-21 06:00:00,43.1,42.0,29.99,SW,226,0.0,0.0,96,0.00,,,0.00,Wunderground v.1.15,2013-10-21 10:00:00,
2013-10-21 06:02:00,43.3,42.0,29.99,SW,226,0.0,0.0,95,0.00,,,0.00,Wunderground v.1.15,2013-10-21 10:02:00,
2013-10-21 06:04:00,43.4,42.1,29.99,SW,226,0.0,0.0,95,0.00,,,0.00,Wunderground v.1.15,2013-10-21 10:04:00,
2013-10-21 06:06:00,43.7,42.4,29.99,SW,220,0.0,5.0,95,0.00,,,0.00,Wunderground v.1.15,2013-10-21 10:06:00,
2013-10-21 06:08:00,44.0,42.4,29.99,SW,222,0.0,5.0,94,0.00,,,0.00,Wunderground v.1.15,2013-10-21 10:08:00,
2013-10-21 06:09:00,44.0,42.1,29.99,SSW,202,0.0,5.0,93,0.00,,,0.00,Wunderground v.1.15,2013-10-21 10:09:00,
2013-10-21 06:11:00,44.1,42.2,29.99,SW,215,0.0,0.0,93,0.00,,,0.00,Wunderground v.1.15,2013-10-21 10:11:00,
2013-10-21 06:12:00,44.1,41.9,29.99,SSW,213,0.0,2.0,92,0.00,,,0.00,Wunderground v.1.15,2013-10-21 10:12:00,
2013-10-21 06:14:00,44.3,42.1,29.99,SSW,205,0.0,2.0,92,0.00,,,0.00,Wunderground v.1.15,2013-10-21 10:14:00,
2013-10-21 06:15:00,44.4,42.2,29.99,SE,136,0.0,2.0,92,0.00,,,0.00,Wunderground v.1.15,2013-10-21 10:15:00,
2013-10-21 06:17:00,44.6,42.1,29.99,SSE,158,0.0,2.0,91,0.00,,,0.00,Wunderground v.1.15,2013-10-21 10:17:00,
2013-10-21 06:18:00,44.8,42.3,29.99,SSW,206,0.0,2.0,91,0.00,,,0.00,Wunderground v.1.15,2013-10-21 10:18:00,
2013-10-21 06:19:00,45.0,42.5,29.99,SSW,206,1.0,2.0,91,0.00,,,0.00,Wunderground v.1.15,2013-10-21 10:19:00,
2013-10-21 06:21:00,45.3,42.5,29.99,SSW,198,1.0,1.0,90,0.00,,,0.00,Wunderground v.1.15,2013-10-21 10:21:00,
2013-10-21 06:22:00,45.3,42.2,29.99,SSW,198,1.0,1.0,89,0.00,,,0.00,Wunderground v.1.15,2013-10-21 10:22:00,
2013-10-21 06:23:00,45.4,42.3,29.99,SSW,198,1.0,1.0,89,0.00,,,0.00,Wunderground v.1.15,2013-10-21 10:23:00,
2013-10-21 06:24:00,45.4,42.3,29.99,SSW,208,1.0,2.0,89,0.00,,,0.00,Wunderground v.1.15,2013-10-21 10:24:00,
2013-10-21 06:25:00,45.6,42.5,29.99,SSW,208,1.0,2.0,89,0.00,,,0.00,Wunderground v.1.15,2013-10-21 10:25:00,
2013-10-21 06:28:00,45.7,42.3,29.99,SSW,205,1.0,2.0,88,0.00,,,0.00,Wunderground v.1.15,2013-10-21 10:28:00,
2013-10-21 06:29:00,45.9,42.5,29.99,SSW,205,1.0,2.0,88,0.00,,,0.00,Wunderground v.1.15,2013-10-21 10:29:00,
2013-10-21 06:31:00,46.2,42.5,29.99,SSW,202,1.0,4.0,87,0.00,,,0.00,Wunderground v.1.15,2013-10-21 10:31:00,
2013-10-21 06:35:00,46.6,42.3,29.99,SW,217,1.0,4.0,85,0.00,,,0.00,Wunderground v.1.15,2013-10-21 10:35:00,
2013-10-21 06:36:00,46.7,42.4,29.99,SSW,196,1.0,4.0,85,0.00,,,0.00,Wunderground v.1.15,2013-10-21 10:36:00,
2013-10-21 06:37:00,46.9,42.6,29.99,SW,217,1.0,4.0,85,0.00,,,0.00,Wunderground v.1.15,2013-10-21 10:37:00,
2013-10-21 06:38:00,46.9,42.6,29.99,SSW,213,1.0,4.0,85,0.00,,,0.00,Wunderground v.1.15,2013-10-21 10:38:00,
2013-10-21 06:42:00,47.0,42.4,29.99,SSW,202,1.0,3.0,84,0.00,,,0.00,Wunderground v.1.15,2013-10-21 10:42:00,
2013-10-21 06:43:00,47.2,42.6,29.99,SSE,158,1.0,3.0,84,0.00,,,0.00,Wunderground v.1.15,2013-10-21 10:43:00,
2013-10-21 06:45:00,47.3,42.7,29.99,SSW,196,2.0,3.0,84,0.00,,,0.00,Wunderground v.1.15,2013-10-21 10:45:00,
2013-10-21 06:46:00,47.3,42.4,29.99,SSW,196,2.0,3.0,83,0.00,,,0.00,Wunderground v.1.15,2013-10-21 10:46:00,
2013-10-21 06:47:00,47.5,42.6,29.99,SW,222,2.0,3.0,83,0.00,,,0.00,Wunderground v.1.15,2013-10-21 10:47:00,
2013-10-21 06:48:00,47.5,42.6,29.99,South,189,2.0,3.0,83,0.00,,,0.00,Wunderground v.1.15,2013-10-21 10:48:00,
2013-10-21 06:50:00,47.5,42.6,29.99,West,263,2.0,2.0,83,0.00,,,0.00,Wunderground v.1.15,2013-10-21 10:50:00,
2013-10-21 06:53:00,47.5,42.6,29.99,SW,215,1.0,2.0,83,0.00,,,0.00,Wunderground v.1.15,2013-10-21 10:53:00,
2013-10-21 06:54:00,47.5,42.6,29.99,South,186,1.0,2.0,83,0.00,,,0.00,Wunderground v.1.15,2013-10-21 10:54:00,
2013-10-21 06:56:00,47.5,42.6,29.99,SW,223,1.0,2.0,83,0.00,,,0.00,Wunderground v.1.15,2013-10-21 10:56:00,
2013-10-21 06:57:00,47.5,42.6,29.99,SW,223,1.0,2.0,83,0.00,,,0.00,Wunderground v.1.15,2013-10-21 10:57:00,
2013-10-21 07:01:00,47.6,42.7,29.99,SW,215,1.0,3.0,83,0.00,,,0.00,Wunderground v.1.15,2013-10-21 11:01:00,
2013-10-21 07:02:00,47.6,42.4,29.99,SW,220,1.0,3.0,82,0.00,,,0.00,Wunderground v.1.15,2013-10-21 11:02:00,
2013-10-21 07:06:00,47.6,42.4,29.99,SW,227,0.0,3.0,82,0.00,,,0.00,Wunderground v.1.15,2013-10-21 11:06:00,
2013-10-21 07:07:00,47.6,42.4,29.99,South,174,0.0,3.0,82,0.00,,,0.00,Wunderground v.1.15,2013-10-21 11:07:00,
2013-10-21 07:08:00,47.6,42.4,29.99,South,179,1.0,3.0,82,0.00,,,0.00,Wunderground v.1.15,2013-10-21 11:08:00,
2013-10-21 07:09:00,47.6,42.4,29.99,SSW,199,1.0,3.0,82,0.00,,,0.00,Wunderground v.1.15,2013-10-21 11:09:00,
2013-10-21 07:12:00,47.8,42.6,29.99,SW,227,1.0,3.0,82,0.00,,,0.00,Wunderground v.1.15,2013-10-21 11:12:00,
2013-10-21 07:13:00,47.8,42.6,29.99,WSW,241,1.0,3.0,82,0.00,,,0.00,Wunderground v.1.15,2013-10-21 11:13:00,
2013-10-21 07:14:00,47.8,42.6,29.99,SSW,193,1.0,3.0,82,0.00,,,0.00,Wunderground v.1.15,2013-10-21 11:14:00,
2013-10-21 07:15:00,47.8,42.3,29.99,SSW,213,1.0,3.0,81,0.00,,,0.00,Wunderground v.1.15,2013-10-21 11:15:00,
2013-10-21 07:19:00,47.9,42.3,29.99,SSW,209,1.0,3.0,81,0.00,,,0.00,Wunderground v.1.15,2013-10-21 11:19:00,
2013-10-21 07:21:00,48.1,42.5,29.99,South,178,2.0,5.0,81,0.00,,,0.00,Wunderground v.1.15,2013-10-21 11:21:00,
2013-10-21 07:22:00,48.1,42.5,29.99,SW,229,2.0,5.0,81,0.00,,,0.00,Wunderground v.1.15,2013-10-21 11:22:00,
2013-10-21 07:24:00,48.1,42.5,29.99,SSW,192,2.0,5.0,81,0.00,,,0.00,Wunderground v.1.15,2013-10-21 11:24:00,
2013-10-21 07:25:00,48.1,42.5,29.99,SW,215,2.0,5.0,81,0.00,,,0.00,Wunderground v.1.15,2013-10-21 11:25:00,
2013-10-21 07:26:00,48.2,42.6,29.99,SW,222,2.0,5.0,81,0.00,,,0.00,Wunderground v.1.15,2013-10-21 11:26:00,
2013-10-21 07:27:00,48.2,42.6,29.99,SSW,213,2.0,5.0,81,0.00,,,0.00,Wunderground v.1.15,2013-10-21 11:27:00,
2013-10-21 07:30:00,48.4,42.5,29.99,South,189,2.0,4.0,80,0.00,,,0.00,Wunderground v.1.15,2013-10-21 11:30:00,
2013-10-21 07:32:00,48.4,42.5,29.99,South,188,2.0,4.0,80,0.00,,,0.00,Wunderground v.1.15,2013-10-21 11:32:00,
2013-10-21 07:33:00,48.4,42.5,29.99,SSW,192,2.0,4.0,80,0.00,,,0.00,Wunderground v.1.15,2013-10-21 11:33:00,
2013-10-21 07:34:00,48.4,42.5,29.99,SW,220,2.0,4.0,80,0.00,,,0.00,Wunderground v.1.15,2013-10-21 11:34:00,
2013-10-21 07:35:00,48.4,42.5,29.99,SW,220,2.0,4.0,80,0.00,,,0.00,Wunderground v.1.15,2013-10-21 11:35:00,
2013-10-21 07:37:00,48.2,42.3,29.99,SW,229,1.0,4.0,80,0.00,,,0.00,Wunderground v.1.15,2013-10-21 11:37:00,
2013-10-21 07:39:00,48.2,42.3,29.99,SSE,168,1.0,4.0,80,0.00,,,0.00,Wunderground v.1.15,2013-10-21 11:39:00,
2013-10-21 07:41:00,48.2,42.3,29.99,SSW,202,1.0,1.0,80,0.00,,,0.00,Wunderground v.1.15,2013-10-21 11:41:00,
2013-10-21 07:43:00,48.4,42.5,29.99,WSW,239,1.0,1.0,80,0.00,,,0.00,Wunderground v.1.15,2013-10-21 11:43:00,
2013-10-21 07:44:00,48.4,42.5,29.99,South,191,1.0,1.0,80,0.00,,,0.00,Wunderground v.1.15,2013-10-21 11:44:00,
2013-10-21 07:46:00,48.2,42.3,29.99,SSW,199,1.0,5.0,80,0.00,,,0.00,Wunderground v.1.15,2013-10-21 11:46:00,
2013-10-21 07:47:00,48.2,42.3,29.99,SSW,213,1.0,5.0,80,0.00,,,0.00,Wunderground v.1.15,2013-10-21 11:47:00,
2013-10-21 07:52:00,48.2,42.3,29.99,South,179,1.0,1.0,80,0.00,,,0.00,Wunderground v.1.15,2013-10-21 11:52:00,
2013-10-21 07:53:00,48.2,42.3,29.99,South,181,1.0,1.0,80,0.00,,,0.00,Wunderground v.1.15,2013-10-21 11:53:00,
2013-10-21 07:54:00,48.2,42.3,29.99,South,181,1.0,1.0,80,0.00,,,0.00,Wunderground v.1.15,2013-10-21 11:54:00,
2013-10-21 07:56:00,48.1,42.2,29.99,SSE,161,1.0,2.0,80,0.00,,,0.00,Wunderground v.1.15,2013-10-21 11:56:00,
2013-10-21 07:57:00,48.1,42.5,29.99,SSW,205,0.0,2.0,81,0.00,,,0.00,Wunderground v.1.15,2013-10-21 11:57:00,
2013-10-21 07:58:00,48.1,42.5,29.99,SSW,192,0.0,2.0,81,0.00,,,0.00,Wunderground v.1.15,2013-10-21 11:58:00,
2013-10-21 08:00:00,48.1,42.5,29.99,SSW,205,0.0,0.0,81,0.00,,,0.00,Wunderground v.1.15,2013-10-21 12:00:00,
2013-10-21 08:01:00,47.9,42.3,29.99,SSW,205,0.0,0.0,81,0.00,,,0.00,Wunderground v.1.15,2013-10-21 12:01:00,
2013-10-21 08:04:00,47.9,42.3,29.99,SSW,209,0.0,2.0,81,0.00,,,0.00,Wunderground v.1.15,2013-10-21 12:04:00,
2013-10-21 08:05:00,47.8,42.3,29.99,SSW,209,1.0,2.0,81,0.00,,,0.00,Wunderground v.1.15,2013-10-21 12:05:00,
2013-10-21 08:07:00,47.8,42.3,29.99,SSW,212,1.0,2.0,81,0.00,,,0.00,Wunderground v.1.15,2013-10-21 12:07:00,
2013-10-21 08:08:00,47.8,42.3,29.99,SSW,212,0.0,2.0,81,0.00,,,0.00,Wunderground v.1.15,2013-10-21 12:08:00,
2013-10-21 08:09:00,47.8,42.3,29.99,WSW,244,1.0,2.0,81,0.00,,,0.00,Wunderground v.1.15,2013-10-21 12:09:00,
2013-10-21 08:11:00,47.6,42.1,29.99,WSW,244,0.0,0.0,81,0.00,,,0.00,Wunderground v.1.15,2013-10-21 12:11:00,
2013-10-21 08:12:00,47.6,42.1,29.99,WSW,240,1.0,1.0,81,0.00,,,0.00,Wunderground v.1.15,2013-10-21 12:12:00,
2013-10-21 08:14:00,47.6,42.1,29.99,SSW,213,1.0,1.0,81,0.00,,,0.00,Wunderground v.1.15,2013-10-21 12:14:00,
2013-10-21 08:15:00,47.6,42.1,29.99,SSW,213,1.0,1.0,81,0.00,,,0.00,Wunderground v.1.15,2013-10-21 12:15:00,
2013-10-21 08:16:00,47.6,42.1,29.99,SSW,212,1.0,1.0,81,0.00,,,0.00,Wunderground v.1.15,2013-10-21 12:16:00,
2013-10-21 08:17:00,47.6,42.1,29.99,SW,230,1.0,1.0,81,0.00,,,0.00,Wunderground v.1.15,2013-10-21 12:17:00,
2013-10-21 08:21:00,47.6,42.1,29.99,SSW,212,1.0,1.0,81,0.00,,,0.00,Wunderground v.1.15,2013-10-21 12:21:00,
2013-10-21 08:23:00,47.6,42.1,29.99,SW,219,1.0,5.0,81,0.00,,,0.00,Wunderground v.1.15,2013-10-21 12:23:00,
2013-10-21 08:25:00,47.8,42.3,29.99,SSW,195,1.0,5.0,81,0.00,,,0.00,Wunderground v.1.15,2013-10-21 12:25:00,
2013-10-21 08:27:00,47.9,42.3,29.99,SSE,161,1.0,5.0,81,0.00,,,0.00,Wunderground v.1.15,2013-10-21 12:27:00,
2013-10-21 08:29:00,48.1,42.5,29.99,SW,220,2.0,5.0,81,0.00,,,0.00,Wunderground v.1.15,2013-10-21 12:29:00,
2013-10-21 08:30:00,48.1,42.5,29.99,SSW,193,1.0,1.0,81,0.00,,,0.00,Wunderground v.1.15,2013-10-21 12:30:00,
2013-10-21 08:32:00,48.2,42.6,29.99,WSW,251,1.0,1.0,81,0.00,,,0.00,Wunderground v.1.15,2013-10-21 12:32:00,
2013-10-21 08:33:00,48.2,42.6,29.99,WSW,247,1.0,1.0,81,0.00,,,0.00,Wunderground v.1.15,2013-10-21 12:33:00,
2013-10-21 08:35:00,48.2,42.3,29.99,WSW,247,1.0,1.0,80,0.00,,,0.00,Wunderground v.1.15,2013-10-21 12:35:00,
2013-10-21 08:36:00,48.2,42.6,29.99,SSW,205,1.0,2.0,81,0.00,,,0.00,Wunderground v.1.15,2013-10-21 12:36:00,
2013-10-21 08:39:00,48.4,42.8,29.99,SW,229,1.0,2.0,81,0.00,,,0.00,Wunderground v.1.15,2013-10-21 12:39:00,
2013-10-21 08:42:00,48.2,42.6,29.99,WSW,246,0.0,1.0,81,0.00,,,0.00,Wunderground v.1.15,2013-10-21 12:42:00,
2013-10-21 08:45:00,48.4,42.8,29.99,SSE,158,1.0,7.0,81,0.00,,,0.00,Wunderground v.1.15,2013-10-21 12:45:00,
2013-10-21 08:46:00,48.4,42.8,29.99,SSW,209,1.0,7.0,81,0.00,,,0.00,Wunderground v.1.15,2013-10-21 12:46:00,
2013-10-21 08:49:00,48.5,42.9,29.99,SSW,209,1.0,7.0,81,0.00,,,0.00,Wunderground v.1.15,2013-10-21 12:49:00,
2013-10-21 08:53:00,48.8,42.6,29.99,SSW,210,2.0,11.0,79,0.00,,,0.00,Wunderground v.1.15,2013-10-21 12:53:00,
2013-10-21 08:54:00,49.0,42.8,29.99,SSW,202,2.0,11.0,79,0.00,,,0.00,Wunderground v.1.15,2013-10-21 12:54:00,
2013-10-21 08:58:00,49.3,42.7,29.99,SW,224,3.0,11.0,78,0.00,,,0.00,Wunderground v.1.15,2013-10-21 12:58:00,
2013-10-21 08:59:00,49.3,42.7,29.99,SSW,196,4.0,11.0,78,0.00,,,0.00,Wunderground v.1.15,2013-10-21 12:59:00,
2013-10-21 09:00:00,49.3,42.7,29.99,SW,215,4.0,4.0,78,0.00,,,0.00,Wunderground v.1.15,2013-10-21 13:00:00,
2013-10-21 09:03:00,49.4,42.8,29.99,SW,215,3.0,6.0,78,0.00,,,0.00,Wunderground v.1.15,2013-10-21 13:03:00,
2013-10-21 09:05:00,49.6,43.0,29.99,SSW,210,3.0,6.0,78,0.00,,,0.00,Wunderground v.1.15,2013-10-21 13:05:00,
2013-10-21 09:06:00,49.7,43.1,29.99,SSW,213,3.0,6.0,78,0.00,,,0.00,Wunderground v.1.15,2013-10-21 13:06:00,
2013-10-21 09:08:00,49.9,43.3,29.99,SSW,205,3.0,6.0,78,0.00,,,0.00,Wunderground v.1.15,2013-10-21 13:08:00,
2013-10-21 09:09:00,49.9,43.0,29.99,SSW,212,3.0,6.0,77,0.00,,,0.00,Wunderground v.1.15,2013-10-21 13:09:00,
2013-10-21 09:12:00,50.1,43.2,29.99,SSW,206,3.0,7.0,77,0.00,,,0.00,Wunderground v.1.15,2013-10-21 13:12:00,
2013-10-21 09:14:00,50.3,43.4,29.99,SSW,198,3.0,7.0,77,0.00,,,0.00,Wunderground v.1.15,2013-10-21 13:14:00,
2013-10-21 09:15:00,50.3,43.0,30.00,SSW,205,4.0,7.0,76,0.00,,,0.00,Wunderground v.1.15,2013-10-21 13:15:00,
2013-10-21 09:16:00,50.3,43.0,30.00,SSW,213,4.0,7.0,76,0.00,,,0.00,Wunderground v.1.15,2013-10-21 13:16:00,
2013-10-21 09:21:00,50.6,43.3,30.00,SSW,212,4.0,4.0,76,0.00,,,0.00,Wunderground v.1.15,2013-10-21 13:21:00,
2013-10-21 09:23:00,50.7,43.4,30.00,SW,223,3.0,6.0,76,0.00,,,0.00,Wunderground v.1.15,2013-10-21 13:23:00,
2013-10-21 09:24:00,50.7,43.4,30.00,SW,219,3.0,6.0,76,0.00,,,0.00,Wunderground v.1.15,2013-10-21 13:24:00,
2013-10-21 09:25:00,50.7,43.4,30.00,SSW,206,3.0,6.0,76,0.00,,,0.00,Wunderground v.1.15,2013-10-21 13:25:00,
2013-10-21 09:27:00,50.9,43.6,30.00,SW,227,2.0,6.0,76,0.00,,,0.00,Wunderground v.1.15,2013-10-21 13:27:00,
2013-10-21 09:28:00,50.9,43.6,30.00,SW,227,2.0,6.0,76,0.00,,,0.00,Wunderground v.1.15,2013-10-21 13:28:00,
2013-10-21 09:29:00,50.9,43.6,30.00,SW,219,2.0,6.0,76,0.00,,,0.00,Wunderground v.1.15,2013-10-21 13:29:00,
2013-10-21 09:32:00,51.2,43.5,30.01,SW,217,3.0,10.0,75,0.00,,,0.00,Wunderground v.1.15,2013-10-21 13:32:00,
2013-10-21 09:34:00,51.3,43.6,30.01,SW,215,3.0,10.0,75,0.00,,,0.00,Wunderground v.1.15,2013-10-21 13:34:00,
2013-10-21 09:35:00,51.3,43.6,30.01,SSW,212,3.0,10.0,75,0.00,,,0.00,Wunderground v.1.15,2013-10-21 13:35:00,
2013-10-21 09:36:00,51.5,43.8,30.01,South,171,3.0,10.0,75,0.00,,,0.00,Wunderground v.1.15,2013-10-21 13:36:00,
2013-10-21 09:38:00,51.5,43.8,30.01,WSW,237,3.0,10.0,75,0.00,,,0.00,Wunderground v.1.15,2013-10-21 13:38:00,
2013-10-21 09:39:00,51.6,43.9,30.01,SSW,209,3.0,10.0,75,0.00,,,0.00,Wunderground v.1.15,2013-10-21 13:39:00,
2013-10-21 09:42:00,51.8,44.1,30.01,SSW,198,3.0,3.0,75,0.00,,,0.00,Wunderground v.1.15,2013-10-21 13:42:00,
2013-10-21 09:44:00,51.9,44.2,30.01,SW,234,3.0,3.0,75,0.00,,,0.00,Wunderground v.1.15,2013-10-21 13:44:00,
2013-10-21 09:45:00,51.9,44.2,30.00,WSW,237,3.0,3.0,75,0.00,,,0.00,Wunderground v.1.15,2013-10-21 13:45:00,
2013-10-21 09:47:00,52.1,44.4,30.00,SSW,205,3.0,4.0,75,0.00,,,0.00,Wunderground v.1.15,2013-10-21 13:47:00,
2013-10-21 09:49:00,52.2,44.5,30.00,SSW,202,3.0,11.0,75,0.00,,,0.00,Wunderground v.1.15,2013-10-21 13:49:00,
2013-10-21 09:52:00,52.5,44.4,30.00,South,176,4.0,8.0,74,0.00,,,0.00,Wunderground v.1.15,2013-10-21 13:52:00,
2013-10-21 09:53:00,52.5,44.1,30.00,SSW,199,4.0,8.0,73,0.00,,,0.00,Wunderground v.1.15,2013-10-21 13:53:00,
2013-10-21 09:54:00,52.7,44.6,30.00,SSW,205,4.0,8.0,74,0.00,,,0.00,Wunderground v.1.15,2013-10-21 13:54:00,
2013-10-21 09:55:00,52.7,44.3,30.00,SSW,200,4.0,8.0,73,0.00,,,0.00,Wunderground v.1.15,2013-10-21 13:55:00,
2013-10-21 09:59:00,53.0,44.6,30.00,SSW,202,4.0,8.0,73,0.00,,,0.00,Wunderground v.1.15,2013-10-21 13:59:00,
2013-10-21 10:00:00,53.1,44.7,30.00,SSW,212,4.0,4.0,73,0.00,,,0.00,Wunderground v.1.15,2013-10-21 14:00:00,
2013-10-21 10:01:00,53.1,44.7,30.00,SSW,200,4.0,8.0,73,0.00,,,0.00,Wunderground v.1.15,2013-10-21 14:01:00,
2013-10-21 10:03:00,53.3,44.5,30.00,SSW,206,4.0,8.0,72,0.00,,,0.00,Wunderground v.1.15,2013-10-21 14:03:00,
2013-10-21 10:05:00,53.4,44.6,30.00,WSW,243,5.0,8.0,72,0.00,,,0.00,Wunderground v.1.15,2013-10-21 14:05:00,
2013-10-21 10:08:00,53.6,44.8,30.00,SW,216,6.0,12.0,72,0.00,,,0.00,Wunderground v.1.15,2013-10-21 14:08:00,
2013-10-21 10:09:00,53.7,44.9,30.00,SW,220,6.0,12.0,72,0.00,,,0.00,Wunderground v.1.15,2013-10-21 14:09:00,
2013-10-21 10:10:00,53.7,44.9,30.00,SW,234,7.0,7.0,72,0.00,,,0.00,Wunderground v.1.15,2013-10-21 14:10:00,
2013-10-21 10:15:00,54.1,44.9,30.00,South,184,7.0,11.0,71,0.00,,,0.00,Wunderground v.1.15,2013-10-21 14:15:00,
2013-10-21 10:16:00,54.3,45.1,30.00,SW,219,7.0,11.0,71,0.00,,,0.00,Wunderground v.1.15,2013-10-21 14:16:00,
2013-10-21 10:17:00,54.3,45.1,30.00,WNW,291,7.0,11.0,71,0.00,,,0.00,Wunderground v.1.15,2013-10-21 14:17:00,
2013-10-21 10:18:00,54.4,45.2,30.00,West,261,6.0,11.0,71,0.00,,,0.00,Wunderground v.1.15,2013-10-21 14:18:00,
2013-10-21 10:20:00,54.6,45.4,30.00,SW,219,6.0,6.0,71,0.00,,,0.00,Wunderground v.1.15,2013-10-21 14:20:00,
2013-10-21 10:21:00,54.6,45.4,30.00,South,172,6.0,6.0,71,0.00,,,0.00,Wunderground v.1.15,2013-10-21 14:21:00,
2013-10-21 10:22:00,54.7,45.1,30.00,SW,234,6.0,6.0,70,0.00,,,0.00,Wunderground v.1.15,2013-10-21 14:22:00,
2013-10-21 10:24:00,54.9,45.7,30.00,SSW,203,6.0,15.0,71,0.00,,,0.00,Wunderground v.1.15,2013-10-21 14:24:00,
2013-10-21 10:27:00,55.0,45.8,30.00,NW,325,5.0,15.0,71,0.00,,,0.00,Wunderground v.1.15,2013-10-21 14:27:00,
2013-10-21 10:28:00,55.2,46.0,30.00,North,0,5.0,15.0,71,0.00,,,0.00,Wunderground v.1.15,2013-10-21 14:28:00,
2013-10-21 10:29:00,55.2,46.0,30.00,WSW,251,5.0,15.0,71,0.00,,,0.00,Wunderground v.1.15,2013-10-21 14:29:00,
2013-10-21 10:30:00,55.3,46.1,30.00,SSW,209,4.0,4.0,71,0.00,,,0.00,Wunderground v.1.15,2013-10-21 14:30:00,
2013-10-21 10:32:00,55.5,45.9,30.00,SSW,199,4.0,11.0,70,0.00,,,0.00,Wunderground v.1.15,2013-10-21 14:32:00,
2013-10-21 10:33:00,55.5,45.9,30.00,SSW,205,4.0,11.0,70,0.00,,,0.00,Wunderground v.1.15,2013-10-21 14:33:00,
2013-10-21 10:35:00,55.6,45.6,30.00,SW,220,4.0,11.0,69,0.00,,,0.00,Wunderground v.1.15,2013-10-21 14:35:00,
2013-10-21 10:36:00,55.8,45.8,30.00,SSW,203,4.0,11.0,69,0.00,,,0.00,Wunderground v.1.15,2013-10-21 14:36:00,
2013-10-21 10:38:00,55.8,46.2,30.00,South,174,4.0,11.0,70,0.00,,,0.00,Wunderground v.1.15,2013-10-21 14:38:00,
2013-10-21 10:41:00,56.1,46.1,30.00,SSW,203,6.0,6.0,69,0.00,,,0.00,Wunderground v.1.15,2013-10-21 14:41:00,
2013-10-21 10:42:00,56.1,46.1,30.00,SW,229,6.0,6.0,69,0.00,,,0.00,Wunderground v.1.15,2013-10-21 14:42:00,
2013-10-21 10:45:00,56.4,46.4,29.99,SSW,210,5.0,7.0,69,0.00,,,0.00,Wunderground v.1.15,2013-10-21 14:45:00,
2013-10-21 10:46:00,56.4,46.0,29.99,SW,215,6.0,11.0,68,0.00,,,0.00,Wunderground v.1.15,2013-10-21 14:46:00,
2013-10-21 10:47:00,56.4,45.6,29.99,SSE,162,7.0,11.0,67,0.00,,,0.00,Wunderground v.1.15,2013-10-21 14:47:00,
2013-10-21 10:48:00,56.4,46.0,29.99,SSW,208,7.0,13.0,68,0.00,,,0.00,Wunderground v.1.15,2013-10-21 14:48:00,
2013-10-21 10:51:00,56.5,46.1,29.99,SW,216,8.0,8.0,68,0.00,,,0.00,Wunderground v.1.15,2013-10-21 14:51:00,
2013-10-21 10:53:00,56.7,46.3,29.99,SSW,199,7.0,12.0,68,0.00,,,0.00,Wunderground v.1.15,2013-10-21 14:53:00,
2013-10-21 10:56:00,56.8,46.7,29.99,WSW,240,7.0,12.0,69,0.00,,,0.00,Wunderground v.1.15,2013-10-21 14:56:00,
2013-10-21 11:00:00,57.1,46.6,29.99,WSW,237,4.0,5.0,68,0.00,,,0.00,Wunderground v.1.15,2013-10-21 15:00:00,
2013-10-21 11:01:00,57.2,46.7,29.99,WSW,239,4.0,5.0,68,0.00,,,0.00,Wunderground v.1.15,2013-10-21 15:01:00,
2013-10-21 11:02:00,57.2,46.7,29.99,SSW,193,4.0,5.0,68,0.00,,,0.00,Wunderground v.1.15,2013-10-21 15:02:00,
2013-10-21 11:07:00,57.5,46.6,29.99,SSW,210,5.0,9.0,67,0.00,,,0.00,Wunderground v.1.15,2013-10-21 15:07:00,
2013-10-21 11:08:00,57.7,46.4,29.99,SSW,200,5.0,9.0,66,0.00,,,0.00,Wunderground v.1.15,2013-10-21 15:08:00,
2013-10-21 11:09:00,57.7,46.4,29.99,SSW,210,6.0,11.0,66,0.00,,,0.00,Wunderground v.1.15,2013-10-21 15:09:00,
2013-10-21 11:10:00,57.8,46.5,29.99,SSW,192,6.0,7.0,66,0.00,,,0.00,Wunderground v.1.15,2013-10-21 15:10:00,
2013-10-21 11:12:00,58.0,46.7,29.99,SSW,205,6.0,11.0,66,0.00,,,0.00,Wunderground v.1.15,2013-10-21 15:12:00,
2013-10-21 11:15:00,58.3,47.0,29.98,South,182,6.0,11.0,66,0.00,,,0.00,Wunderground v.1.15,2013-10-21 15:15:00,
2013-10-21 11:16:00,58.3,47.0,29.98,SW,219,7.0,13.0,66,0.00,,,0.00,Wunderground v.1.15,2013-10-21 15:16:00,
2013-10-21 11:18:00,58.5,47.2,29.98,SSW,196,7.0,13.0,66,0.00,,,0.00,Wunderground v.1.15,2013-10-21 15:18:00,
2013-10-21 11:20:00,58.6,47.3,29.98,SSW,202,7.0,7.0,66,0.00,,,0.00,Wunderground v.1.15,2013-10-21 15:20:00,
2013-10-21 11:22:00,58.6,46.9,29.98,SW,223,7.0,8.0,65,0.00,,,0.00,Wunderground v.1.15,2013-10-21 15:22:00,
2013-10-21 11:24:00,58.8,47.1,29.98,WSW,247,7.0,12.0,65,0.00,,,0.00,Wunderground v.1.15,2013-10-21 15:24:00,
2013-10-21 11:25:00,58.9,47.6,29.98,SSW,210,7.0,12.0,66,0.00,,,0.00,Wunderground v.1.15,2013-10-21 15:25:00,
2013-10-21 11:26:00,59.1,47.3,29.98,SW,216,7.0,12.0,65,0.00,,,0.00,Wunderground v.1.15,2013-10-21 15:26:00,
2013-10-21 11:29:00,59.4,47.6,29.98,SSW,210,6.0,12.0,65,0.00,,,0.00,Wunderground v.1.15,2013-10-21 15:29:00,
2013-10-21 11:30:00,59.4,48.0,29.97,SSW,209,5.0,6.0,66,0.00,,,0.00,Wunderground v.1.15,2013-10-21 15:30:00,
2013-10-21 11:34:00,59.7,47.1,29.97,SSW,196,5.0,11.0,63,0.00,,,0.00,Wunderground v.1.15,2013-10-21 15:34:00,
2013-10-21 11:35:00,59.7,47.1,29.97,SSW,192,5.0,12.0,63,0.00,,,0.00,Wunderground v.1.15,2013-10-21 15:35:00,
2013-10-21 11:36:00,59.7,47.1,29.97,SW,224,5.0,12.0,63,0.00,,,0.00,Wunderground v.1.15,2013-10-21 15:36:00,
2013-10-21 11:39:00,60.0,47.8,29.97,SSW,205,6.0,12.0,64,0.00,,,0.00,Wunderground v.1.15,2013-10-21 15:39:00,
2013-10-21 11:40:00,60.0,47.4,29.97,SSE,160,7.0,7.0,63,0.00,,,0.00,Wunderground v.1.15,2013-10-21 15:40:00,
2013-10-21 11:41:00,60.0,47.4,29.97,SSW,193,7.0,10.0,63,0.00,,,0.00,Wunderground v.1.15,2013-10-21 15:41:00,
2013-10-21 11:43:00,60.1,47.5,29.97,SSW,193,7.0,14.0,63,0.00,,,0.00,Wunderground v.1.15,2013-10-21 15:43:00,
2013-10-21 11:47:00,60.4,47.3,29.96,SSW,195,7.0,14.0,62,0.00,,,0.00,Wunderground v.1.15,2013-10-21 15:47:00,
2013-10-21 11:48:00,60.4,46.9,29.96,South,174,8.0,14.0,61,0.00,,,0.00,Wunderground v.1.15,2013-10-21 15:48:00,
2013-10-21 11:49:00,60.4,47.3,29.96,SSW,203,8.0,14.0,62,0.00,,,0.00,Wunderground v.1.15,2013-10-21 15:49:00,
2013-10-21 11:51:00,60.6,47.5,29.96,SSW,195,8.0,8.0,62,0.00,,,0.00,Wunderground v.1.15,2013-10-21 15:51:00,
2013-10-21 11:52:00,60.6,47.5,29.96,South,185,7.0,8.0,62,0.00,,,0.00,Wunderground v.1.15,2013-10-21 15:52:00,
2013-10-21 11:57:00,61.2,48.1,29.96,SSW,208,5.0,8.0,62,0.00,,,0.00,Wunderground v.1.15,2013-10-21 15:57:00,
2013-10-21 11:58:00,61.2,47.6,29.96,WSW,239,5.0,8.0,61,0.00,,,0.00,Wunderground v.1.15,2013-10-21 15:58:00,
2013-10-21 12:01:00,61.5,47.9,29.96,South,189,3.0,4.0,61,0.00,,,0.00,Wunderground v.1.15,2013-10-21 16:01:00,
2013-10-21 12:02:00,61.7,48.1,29.96,SW,220,3.0,6.0,61,0.00,,,0.00,Wunderground v.1.15,2013-10-21 16:02:00,
2013-10-21 12:04:00,61.8,47.8,29.96,South,185,4.0,19.0,60,0.00,,,0.00,Wunderground v.1.15,2013-10-21 16:04:00,
2013-10-21 12:05:00,61.7,47.7,29.96,NW,311,5.0,19.0,60,0.00,,,0.00,Wunderground v.1.15,2013-10-21 16:05:00,
2013-10-21 12:07:00,61.7,48.1,29.96,South,189,5.0,19.0,61,0.00,,,0.00,Wunderground v.1.15,2013-10-21 16:07:00,
2013-10-21 12:08:00,61.7,47.7,29.96,SSW,212,5.0,19.0,60,0.00,,,0.00,Wunderground v.1.15,2013-10-21 16:08:00,
2013-10-21 12:10:00,61.7,47.7,29.96,WSW,253,6.0,6.0,60,0.00,,,0.00,Wunderground v.1.15,2013-10-21 16:10:00,
2013-10-21 12:11:00,61.8,48.2,29.96,WNW,299,7.0,7.0,61,0.00,,,0.00,Wunderground v.1.15,2013-10-21 16:11:00,
2013-10-21 12:12:00,61.7,47.7,29.96,SW,236,8.0,8.0,60,0.00,,,0.00,Wunderground v.1.15,2013-10-21 16:12:00,
2013-10-21 12:13:00,61.7,47.7,29.96,SW,236,8.0,8.0,60,0.00,,,0.00,Wunderground v.1.15,2013-10-21 16:13:00,
2013-10-21 12:14:00,61.7,47.7,29.96,SSW,212,8.0,12.0,60,0.00,,,0.00,Wunderground v.1.15,2013-10-21 16:14:00,
2013-10-21 12:18:00,61.2,47.6,29.97,SSW,212,8.0,12.0,61,0.00,,,0.00,Wunderground v.1.15,2013-10-21 16:18:00,
2013-10-21 12:19:00,61.2,47.6,29.97,NW,320,8.0,12.0,61,0.00,,,0.00,Wunderground v.1.15,2013-10-21 16:19:00,
2013-10-21 12:20:00,61.2,47.6,29.97,NW,312,8.0,8.0,61,0.00,,,0.00,Wunderground v.1.15,2013-10-21 16:20:00,
2013-10-21 12:24:00,61.0,47.9,29.97,SSW,209,8.0,12.0,62,0.00,,,0.00,Wunderground v.1.15,2013-10-21 16:24:00,
2013-10-21 12:25:00,61.0,47.4,29.97,SSW,205,8.0,12.0,61,0.00,,,0.00,Wunderground v.1.15,2013-10-21 16:25:00,
2013-10-21 12:26:00,61.0,47.4,29.97,SSW,206,8.0,12.0,61,0.00,,,0.00,Wunderground v.1.15,2013-10-21 16:26:00,
2013-10-21 12:27:00,61.0,47.4,29.97,West,267,7.0,12.0,61,0.00,,,0.00,Wunderground v.1.15,2013-10-21 16:27:00,
2013-10-21 12:31:00,61.2,48.1,29.97,WSW,257,7.0,7.0,62,0.00,,,0.00,Wunderground v.1.15,2013-10-21 16:31:00,
2013-10-21 12:32:00,61.4,47.8,29.97,WSW,256,5.0,7.0,61,0.00,,,0.00,Wunderground v.1.15,2013-10-21 16:32:00,
2013-10-21 12:33:00,61.4,47.8,29.97,NNW,337,5.0,7.0,61,0.00,,,0.00,Wunderground v.1.15,2013-10-21 16:33:00,
2013-10-21 12:35:00,61.5,48.8,29.97,WSW,247,3.0,7.0,63,0.00,,,0.00,Wunderground v.1.15,2013-10-21 16:35:00,
2013-10-21 12:36:00,61.5,48.8,29.97,SW,232,2.0,7.0,63,0.00,,,0.00,Wunderground v.1.15,2013-10-21 16:36:00,
2013-10-21 12:38:00,61.8,48.6,29.97,NW,312,2.0,7.0,62,0.00,,,0.00,Wunderground v.1.15,2013-10-21 16:38:00,
2013-10-21 12:39:00,62.0,48.8,29.97,SW,230,2.0,10.0,62,0.00,,,0.00,Wunderground v.1.15,2013-10-21 16:39:00,
2013-10-21 12:41:00,62.1,48.5,29.97,West,260,4.0,7.0,61,0.00,,,0.00,Wunderground v.1.15,2013-10-21 16:41:00,
2013-10-21 12:44:00,62.5,48.9,29.97,WSW,246,5.0,11.0,61,0.00,,,0.00,Wunderground v.1.15,2013-10-21 16:44:00,
2013-10-21 12:47:00,62.8,48.3,29.97,SSW,192,6.0,11.0,59,0.00,,,0.00,Wunderground v.1.15,2013-10-21 16:47:00,
2013-10-21 12:49:00,62.8,48.7,29.97,West,280,5.0,11.0,60,0.00,,,0.00,Wunderground v.1.15,2013-10-21 16:49:00,
2013-10-21 12:50:00,62.8,48.7,29.97,NW,320,5.0,6.0,60,0.00,,,0.00,Wunderground v.1.15,2013-10-21 16:50:00,
2013-10-21 12:53:00,62.5,48.4,29.97,WSW,250,4.0,7.0,60,0.00,,,0.00,Wunderground v.1.15,2013-10-21 16:53:00,
2013-10-21 12:55:00,62.1,48.5,29.97,SSW,203,5.0,7.0,61,0.00,,,0.00,Wunderground v.1.15,2013-10-21 16:55:00,
2013-10-21 12:56:00,62.1,48.5,29.97,WNW,285,5.0,7.0,61,0.00,,,0.00,Wunderground v.1.15,2013-10-21 16:56:00,
2013-10-21 12:57:00,62.1,48.5,29.97,WSW,240,5.0,7.0,61,0.00,,,0.00,Wunderground v.1.15,2013-10-21 16:57:00,
2013-10-21 12:59:00,62.1,48.5,29.97,WSW,247,5.0,7.0,61,0.00,,,0.00,Wunderground v.1.15,2013-10-21 16:59:00,
2013-10-21 13:00:00,62.1,48.5,29.96,SW,226,5.0,5.0,61,0.00,,,0.00,Wunderground v.1.15,2013-10-21 17:00:00,
2013-10-21 13:01:00,62.1,48.5,29.96,South,188,5.0,14.0,61,0.00,,,0.00,Wunderground v.1.15,2013-10-21 17:01:00,
2013-10-21 13:02:00,62.1,48.5,29.96,SW,222,5.0,14.0,61,0.00,,,0.00,Wunderground v.1.15,2013-10-21 17:02:00,
2013-10-21 13:05:00,62.0,48.4,29.96,SW,236,5.0,16.0,61,0.00,,,0.00,Wunderground v.1.15,2013-10-21 17:05:00,
2013-10-21 13:06:00,62.0,48.4,29.96,West,270,5.0,16.0,61,0.00,,,0.00,Wunderground v.1.15,2013-10-21 17:06:00,
2013-10-21 13:07:00,62.0,48.4,29.96,WSW,258,6.0,16.0,61,0.00,,,0.00,Wunderground v.1.15,2013-10-21 17:07:00,
2013-10-21 13:08:00,62.0,48.4,29.96,WNW,302,6.0,16.0,61,0.00,,,0.00,Wunderground v.1.15,2013-10-21 17:08:00,
2013-10-21 13:09:00,62.0,48.4,29.96,South,185,6.0,16.0,61,0.00,,,0.00,Wunderground v.1.15,2013-10-21 17:09:00,
2013-10-21 13:14:00,62.0,48.4,29.96,WNW,287,5.0,6.0,61,0.00,,,0.00,Wunderground v.1.15,2013-10-21 17:14:00,
2013-10-21 13:15:00,62.0,48.4,29.97,SW,226,4.0,6.0,61,0.00,,,0.00,Wunderground v.1.15,2013-10-21 17:15:00,
2013-10-21 13:17:00,61.8,48.6,29.97,WSW,257,4.0,6.0,62,0.00,,,0.00,Wunderground v.1.15,2013-10-21 17:17:00,
2013-10-21 13:19:00,62.0,48.4,29.97,SW,230,4.0,6.0,61,0.00,,,0.00,Wunderground v.1.15,2013-10-21 17:19:00,
2013-10-21 13:22:00,61.8,48.6,29.97,WSW,246,4.0,4.0,62,0.00,,,0.00,Wunderground v.1.15,2013-10-21 17:22:00,
2013-10-21 13:23:00,61.8,49.1,29.97,West,265,3.0,4.0,63,0.00,,,0.00,Wunderground v.1.15,2013-10-21 17:23:00,
2013-10-21 13:24:00,62.0,49.3,29.97,SW,216,3.0,4.0,63,0.00,,,0.00,Wunderground v.1.15,2013-10-21 17:24:00,
2013-10-21 13:25:00,62.0,48.8,29.97,SW,227,4.0,4.0,62,0.00,,,0.00,Wunderground v.1.15,2013-10-21 17:25:00,
2013-10-21 13:26:00,62.0,49.3,29.97,SW,220,3.0,11.0,63,0.00,,,0.00,Wunderground v.1.15,2013-10-21 17:26:00,
2013-10-21 13:28:00,61.8,48.2,29.97,WSW,237,5.0,12.0,61,0.00,,,0.00,Wunderground v.1.15,2013-10-21 17:28:00,
2013-10-21 13:29:00,61.8,48.6,29.97,NW,304,5.0,12.0,62,0.00,,,0.00,Wunderground v.1.15,2013-10-21 17:29:00,
2013-10-21 13:33:00,62.0,48.8,29.96,SSW,202,6.0,8.0,62,0.00,,,0.00,Wunderground v.1.15,2013-10-21 17:33:00,
2013-10-21 13:34:00,62.0,48.8,29.96,WSW,246,6.0,8.0,62,0.00,,,0.00,Wunderground v.1.15,2013-10-21 17:34:00,
2013-10-21 13:36:00,62.3,49.5,29.96,WSW,256,6.0,8.0,63,0.00,,,0.00,Wunderground v.1.15,2013-10-21 17:36:00,
2013-10-21 13:37:00,62.3,49.1,29.96,WNW,302,5.0,8.0,62,0.00,,,0.00,Wunderground v.1.15,2013-10-21 17:37:00,
2013-10-21 13:38:00,62.5,49.7,29.96,South,175,4.0,8.0,63,0.00,,,0.00,Wunderground v.1.15,2013-10-21 17:38:00,
2013-10-21 13:41:00,62.9,49.7,29.96,WNW,284,4.0,4.0,62,0.00,,,0.00,Wunderground v.1.15,2013-10-21 17:41:00,
2013-10-21 13:43:00,63.2,49.5,29.96,WNW,294,3.0,7.0,61,0.00,,,0.00,Wunderground v.1.15,2013-10-21 17:43:00,
2013-10-21 13:44:00,63.4,49.7,29.96,NW,319,2.0,13.0,61,0.00,,,0.00,Wunderground v.1.15,2013-10-21 17:44:00,
2013-10-21 13:45:00,63.4,49.3,29.95,SSW,195,3.0,13.0,60,0.00,,,0.00,Wunderground v.1.15,2013-10-21 17:45:00,
2013-10-21 13:50:00,63.4,49.3,29.95,WSW,257,4.0,7.0,60,0.00,,,0.00,Wunderground v.1.15,2013-10-21 17:50:00,
2013-10-21 13:51:00,63.6,49.0,29.95,South,176,5.0,12.0,59,0.00,,,0.00,Wunderground v.1.15,2013-10-21 17:51:00,
2013-10-21 13:52:00,63.6,49.5,29.95,SW,230,5.0,12.0,60,0.00,,,0.00,Wunderground v.1.15,2013-10-21 17:52:00,
2013-10-21 13:54:00,63.7,49.5,29.95,SSW,209,6.0,12.0,60,0.00,,,0.00,Wunderground v.1.15,2013-10-21 17:54:00,
2013-10-21 13:55:00,63.9,49.3,29.95,NW,315,5.0,12.0,59,0.00,,,0.00,Wunderground v.1.15,2013-10-21 17:55:00,
2013-10-21 13:57:00,64.0,48.9,29.95,WNW,289,4.0,12.0,58,0.00,,,0.00,Wunderground v.1.15,2013-10-21 17:57:00,
2013-10-21 13:58:00,64.0,48.9,29.95,WNW,299,4.0,12.0,58,0.00,,,0.00,Wunderground v.1.15,2013-10-21 17:58:00,
2013-10-21 14:00:00,64.2,49.6,29.94,SW,236,4.0,5.0,59,0.00,,,0.00,Wunderground v.1.15,2013-10-21 18:00:00,
2013-10-21 14:01:00,64.2,49.6,29.94,South,178,3.0,5.0,59,0.00,,,0.00,Wunderground v.1.15,2013-10-21 18:01:00,
2013-10-21 14:03:00,64.2,49.6,29.94,West,271,2.0,5.0,59,0.00,,,0.00,Wunderground v.1.15,2013-10-21 18:03:00,
2013-10-21 14:05:00,64.2,49.6,29.94,SSW,192,2.0,17.0,59,0.00,,,0.00,Wunderground v.1.15,2013-10-21 18:05:00,
2013-10-21 14:06:00,64.0,49.8,29.94,SW,222,3.0,17.0,60,0.00,,,0.00,Wunderground v.1.15,2013-10-21 18:06:00,
2013-10-21 14:09:00,63.9,49.7,29.94,SSW,209,3.0,17.0,60,0.00,,,0.00,Wunderground v.1.15,2013-10-21 18:09:00,
2013-10-21 14:11:00,63.9,49.7,29.94,WSW,247,3.0,4.0,60,0.00,,,0.00,Wunderground v.1.15,2013-10-21 18:11:00,
2013-10-21 14:12:00,63.9,49.3,29.94,SW,227,3.0,5.0,59,0.00,,,0.00,Wunderground v.1.15,2013-10-21 18:12:00,
2013-10-21 14:16:00,63.9,49.7,29.94,WSW,248,3.0,5.0,60,0.00,,,0.00,Wunderground v.1.15,2013-10-21 18:16:00,
2013-10-21 14:17:00,63.9,50.2,29.94,WSW,251,3.0,5.0,61,0.00,,,0.00,Wunderground v.1.15,2013-10-21 18:17:00,
2013-10-21 14:18:00,63.9,50.2,29.94,SSW,200,3.0,5.0,61,0.00,,,0.00,Wunderground v.1.15,2013-10-21 18:18:00,
2013-10-21 14:20:00,63.9,50.2,29.94,NW,322,2.0,2.0,61,0.00,,,0.00,Wunderground v.1.15,2013-10-21 18:20:00,
2013-10-21 14:22:00,63.9,50.2,29.94,West,280,3.0,6.0,61,0.00,,,0.00,Wunderground v.1.15,2013-10-21 18:22:00,
2013-10-21 14:25:00,63.7,49.5,29.94,West,263,4.0,7.0,60,0.00,,,0.00,Wunderground v.1.15,2013-10-21 18:25:00,
2013-10-21 14:26:00,63.7,50.0,29.94,South,179,3.0,7.0,61,0.00,,,0.00,Wunderground v.1.15,2013-10-21 18:26:00,
2013-10-21 14:27:00,63.7,50.0,29.94,SSW,208,3.0,7.0,61,0.00,,,0.00,Wunderground v.1.15,2013-10-21 18:27:00,
2013-10-21 14:31:00,63.6,49.9,29.93,SSW,208,4.0,5.0,61,0.00,,,0.00,Wunderground v.1.15,2013-10-21 18:31:00,
2013-10-21 14:32:00,63.4,49.7,29.93,SSW,209,4.0,10.0,61,0.00,,,0.00,Wunderground v.1.15,2013-10-21 18:32:00,
2013-10-21 14:33:00,63.2,49.5,29.93,SW,236,5.0,10.0,61,0.00,,,0.00,Wunderground v.1.15,2013-10-21 18:33:00,
2013-10-21 14:35:00,63.1,49.4,29.93,SSW,203,5.0,10.0,61,0.00,,,0.00,Wunderground v.1.15,2013-10-21 18:35:00,
2013-10-21 14:36:00,63.1,49.4,29.93,SW,219,5.0,10.0,61,0.00,,,0.00,Wunderground v.1.15,2013-10-21 18:36:00,
2013-10-21 14:37:00,63.1,49.4,29.93,SSW,205,5.0,10.0,61,0.00,,,0.00,Wunderground v.1.15,2013-10-21 18:37:00,
2013-10-21 14:40:00,62.9,49.2,29.93,SSW,199,5.0,7.0,61,0.00,,,0.00,Wunderground v.1.15,2013-10-21 18:40:00,
2013-10-21 14:41:00,62.8,49.1,29.93,SW,224,5.0,7.0,61,0.00,,,0.00,Wunderground v.1.15,2013-10-21 18:41:00,
2013-10-21 14:43:00,62.8,49.6,29.93,SW,217,4.0,7.0,62,0.00,,,0.00,Wunderground v.1.15,2013-10-21 18:43:00,
2013-10-21 14:44:00,62.8,49.6,29.93,SSW,199,4.0,8.0,62,0.00,,,0.00,Wunderground v.1.15,2013-10-21 18:44:00,
2013-10-21 14:45:00,62.8,49.1,29.93,South,176,5.0,8.0,61,0.00,,,0.00,Wunderground v.1.15,2013-10-21 18:45:00,
2013-10-21 14:48:00,62.6,49.4,29.93,SSW,208,5.0,8.0,62,0.00,,,0.00,Wunderground v.1.15,2013-10-21 18:48:00,
2013-10-21 14:50:00,62.6,49.8,29.93,SSW,209,4.0,4.0,63,0.00,,,0.00,Wunderground v.1.15,2013-10-21 18:50:00,
2013-10-21 14:52:00,62.6,49.8,29.93,SSW,210,4.0,6.0,63,0.00,,,0.00,Wunderground v.1.15,2013-10-21 18:52:00,
2013-10-21 14:53:00,62.6,49.8,29.93,South,181,4.0,6.0,63,0.00,,,0.00,Wunderground v.1.15,2013-10-21 18:53:00,
2013-10-21 14:58:00,62.8,50.0,29.93,SSW,210,2.0,6.0,63,0.00,,,0.00,Wunderground v.1.15,2013-10-21 18:58:00,
2013-10-21 14:59:00,62.8,50.0,29.93,WSW,251,2.0,6.0,63,0.00,,,0.00,Wunderground v.1.15,2013-10-21 18:59:00,
2013-10-21 15:00:00,62.9,49.7,29.92,WSW,258,3.0,3.0,62,0.00,,,0.00,Wunderground v.1.15,2013-10-21 19:00:00,
2013-10-21 15:02:00,62.9,49.7,29.92,SW,226,3.0,6.0,62,0.00,,,0.00,Wunderground v.1.15,2013-10-21 19:02:00,
2013-10-21 15:04:00,62.9,50.1,29.92,South,184,3.0,6.0,63,0.00,,,0.00,Wunderground v.1.15,2013-10-21 19:04:00,
2013-10-21 15:05:00,63.1,50.3,29.92,SSW,209,3.0,6.0,63,0.00,,,0.00,Wunderground v.1.15,2013-10-21 19:05:00,
2013-10-21 15:06:00,63.1,50.3,29.92,SSW,193,3.0,6.0,63,0.00,,,0.00,Wunderground v.1.15,2013-10-21 19:06:00,
2013-10-21 15:08:00,63.1,49.9,29.92,SSE,164,3.0,6.0,62,0.00,,,0.00,Wunderground v.1.15,2013-10-21 19:08:00,
2013-10-21 15:09:00,63.2,50.0,29.92,SSW,213,3.0,6.0,62,0.00,,,0.00,Wunderground v.1.15,2013-10-21 19:09:00,
2013-10-21 15:12:00,63.1,49.9,29.92,SSW,205,4.0,7.0,62,0.00,,,0.00,Wunderground v.1.15,2013-10-21 19:12:00,
2013-10-21 15:13:00,63.1,49.9,29.92,South,188,4.0,7.0,62,0.00,,,0.00,Wunderground v.1.15,2013-10-21 19:13:00,
2013-10-21 15:14:00,63.1,49.9,29.92,SSW,213,4.0,10.0,62,0.00,,,0.00,Wunderground v.1.15,2013-10-21 19:14:00,
2013-10-21 15:17:00,63.1,49.9,29.92,SW,233,6.0,14.0,62,0.00,,,0.00,Wunderground v.1.15,2013-10-21 19:17:00,
2013-10-21 15:19:00,63.1,49.9,29.92,WSW,247,5.0,14.0,62,0.00,,,0.00,Wunderground v.1.15,2013-10-21 19:19:00,
2013-10-21 15:21:00,63.2,49.5,29.92,WSW,257,5.0,12.0,61,0.00,,,0.00,Wunderground v.1.15,2013-10-21 19:21:00,
2013-10-21 15:23:00,63.2,49.5,29.92,SW,236,5.0,12.0,61,0.00,,,0.00,Wunderground v.1.15,2013-10-21 19:23:00,
2013-10-21 15:25:00,63.2,50.0,29.92,SW,229,5.0,12.0,62,0.00,,,0.00,Wunderground v.1.15,2013-10-21 19:25:00,
2013-10-21 15:26:00,63.4,49.7,29.92,SW,227,5.0,12.0,61,0.00,,,0.00,Wunderground v.1.15,2013-10-21 19:26:00,
2013-10-21 15:30:00,63.4,49.7,29.92,SW,224,5.0,5.0,61,0.00,,,0.00,Wunderground v.1.15,2013-10-21 19:30:00,
2013-10-21 15:32:00,63.4,49.3,29.92,WSW,251,6.0,6.0,60,0.00,,,0.00,Wunderground v.1.15,2013-10-21 19:32:00,
2013-10-21 15:34:00,63.4,49.7,29.92,South,181,5.0,6.0,61,0.00,,,0.00,Wunderground v.1.15,2013-10-21 19:34:00,
2013-10-21 15:35:00,63.4,49.7,29.92,SW,220,6.0,6.0,61,0.00,,,0.00,Wunderground v.1.15,2013-10-21 19:35:00,
2013-10-21 15:36:00,63.4,49.7,29.92,West,265,6.0,6.0,61,0.00,,,0.00,Wunderground v.1.15,2013-10-21 19:36:00,
2013-10-21 15:38:00,63.6,49.9,29.92,SSW,213,5.0,17.0,61,0.00,,,0.00,Wunderground v.1.15,2013-10-21 19:38:00,
2013-10-21 15:40:00,63.4,49.3,29.92,WSW,239,7.0,7.0,60,0.00,,,0.00,Wunderground v.1.15,2013-10-21 19:40:00,
2013-10-21 15:42:00,63.4,49.3,29.92,SW,216,7.0,7.0,60,0.00,,,0.00,Wunderground v.1.15,2013-10-21 19:42:00,
2013-10-21 15:43:00,63.2,49.1,29.92,SW,215,7.0,7.0,60,0.00,,,0.00,Wunderground v.1.15,2013-10-21 19:43:00,
2013-10-21 15:45:00,63.2,50.0,29.92,SSW,208,7.0,7.0,62,0.00,,,0.00,Wunderground v.1.15,2013-10-21 19:45:00,
2013-10-21 15:48:00,63.2,49.5,29.92,West,270,6.0,7.0,61,0.00,,,0.00,Wunderground v.1.15,2013-10-21 19:48:00,
2013-10-21 15:49:00,63.2,49.5,29.92,NW,308,5.0,7.0,61,0.00,,,0.00,Wunderground v.1.15,2013-10-21 19:49:00,
2013-10-21 15:53:00,63.2,49.1,29.92,WNW,289,3.0,11.0,60,0.00,,,0.00,Wunderground v.1.15,2013-10-21 19:53:00,
2013-10-21 15:54:00,63.2,49.1,29.92,SW,215,3.0,11.0,60,0.00,,,0.00,Wunderground v.1.15,2013-10-21 19:54:00,
2013-10-21 15:57:00,63.1,49.4,29.92,SW,223,4.0,11.0,61,0.00,,,0.00,Wunderground v.1.15,2013-10-21 19:57:00,
2013-10-21 16:00:00,63.1,49.0,29.92,SSW,199,5.0,5.0,60,0.00,,,0.00,Wunderground v.1.15,2013-10-21 20:00:00,
2013-10-21 16:01:00,63.1,49.0,29.92,SW,236,5.0,5.0,60,0.00,,,0.00,Wunderground v.1.15,2013-10-21 20:01:00,
2013-10-21 16:04:00,63.1,49.4,29.92,SW,223,5.0,6.0,61,0.00,,,0.00,Wunderground v.1.15,2013-10-21 20:04:00,
2013-10-21 16:05:00,63.1,49.4,29.92,SSW,196,4.0,6.0,61,0.00,,,0.00,Wunderground v.1.15,2013-10-21 20:05:00,
2013-10-21 16:06:00,63.1,49.4,29.92,SW,227,5.0,6.0,61,0.00,,,0.00,Wunderground v.1.15,2013-10-21 20:06:00,
2013-10-21 16:08:00,63.1,49.4,29.92,SSW,198,4.0,8.0,61,0.00,,,0.00,Wunderground v.1.15,2013-10-21 20:08:00,
2013-10-21 16:09:00,63.1,49.4,29.92,WSW,240,5.0,8.0,61,0.00,,,0.00,Wunderground v.1.15,2013-10-21 20:09:00,
2013-10-21 16:10:00,63.1,49.4,29.92,South,179,4.0,7.0,61,0.00,,,0.00,Wunderground v.1.15,2013-10-21 20:10:00,
2013-10-21 16:12:00,62.9,49.2,29.92,SW,227,5.0,7.0,61,0.00,,,0.00,Wunderground v.1.15,2013-10-21 20:12:00,
2013-10-21 16:13:00,62.9,49.2,29.92,SW,233,5.0,7.0,61,0.00,,,0.00,Wunderground v.1.15,2013-10-21 20:13:00,
2013-10-21 16:14:00,62.8,49.1,29.92,WSW,237,5.0,7.0,61,0.00,,,0.00,Wunderground v.1.15,2013-10-21 20:14:00,
2013-10-21 16:18:00,62.8,49.1,29.92,WSW,239,4.0,8.0,61,0.00,,,0.00,Wunderground v.1.15,2013-10-21 20:18:00,
2013-10-21 16:20:00,62.8,49.6,29.92,WNW,287,4.0,4.0,62,0.00,,,0.00,Wunderground v.1.15,2013-10-21 20:20:00,
2013-10-21 16:22:00,62.9,49.7,29.92,SW,229,3.0,4.0,62,0.00,,,0.00,Wunderground v.1.15,2013-10-21 20:22:00,
2013-10-21 16:23:00,62.9,49.7,29.92,SW,215,3.0,4.0,62,0.00,,,0.00,Wunderground v.1.15,2013-10-21 20:23:00,
2013-10-21 16:24:00,62.9,49.7,29.92,West,263,2.0,4.0,62,0.00,,,0.00,Wunderground v.1.15,2013-10-21 20:24:00,
2013-10-21 16:28:00,63.2,49.5,29.92,West,260,3.0,5.0,61,0.00,,,0.00,Wunderground v.1.15,2013-10-21 20:28:00,
2013-10-21 16:29:00,63.2,49.5,29.92,SSW,196,3.0,6.0,61,0.00,,,0.00,Wunderground v.1.15,2013-10-21 20:29:00,
2013-10-21 16:30:00,63.4,49.7,29.92,West,265,3.0,3.0,61,0.00,,,0.00,Wunderground v.1.15,2013-10-21 20:30:00,
2013-10-21 16:34:00,63.6,49.9,29.92,North,349,3.0,3.0,61,0.00,,,0.00,Wunderground v.1.15,2013-10-21 20:34:00,
2013-10-21 16:35:00,63.6,49.9,29.92,SW,219,4.0,6.0,61,0.00,,,0.00,Wunderground v.1.15,2013-10-21 20:35:00,
2013-10-21 16:36:00,63.6,49.9,29.92,WSW,251,4.0,6.0,61,0.00,,,0.00,Wunderground v.1.15,2013-10-21 20:36:00,
2013-10-21 16:40:00,63.6,49.9,29.92,SW,234,3.0,4.0,61,0.00,,,0.00,Wunderground v.1.15,2013-10-21 20:40:00,
2013-10-21 16:41:00,63.6,49.9,29.92,WSW,253,4.0,7.0,61,0.00,,,0.00,Wunderground v.1.15,2013-10-21 20:41:00,
2013-10-21 16:42:00,63.6,49.9,29.92,SSW,195,4.0,14.0,61,0.00,,,0.00,Wunderground v.1.15,2013-10-21 20:42:00,
2013-10-21 16:43:00,63.6,49.9,29.92,West,274,4.0,14.0,61,0.00,,,0.00,Wunderground v.1.15,2013-10-21 20:43:00,
2013-10-21 16:44:00,63.6,50.3,29.92,WNW,296,4.0,14.0,62,0.00,,,0.00,Wunderground v.1.15,2013-10-21 20:44:00,
2013-10-21 16:46:00,63.6,49.9,29.92,SW,232,5.0,14.0,61,0.00,,,0.00,Wunderground v.1.15,2013-10-21 20:46:00,
2013-10-21 16:48:00,63.7,50.4,29.92,SSW,203,5.0,14.0,62,0.00,,,0.00,Wunderground v.1.15,2013-10-21 20:48:00,
2013-10-21 16:49:00,63.7,50.4,29.92,WSW,244,5.0,14.0,62,0.00,,,0.00,Wunderground v.1.15,2013-10-21 20:49:00,
2013-10-21 16:52:00,63.9,50.6,29.92,South,191,4.0,5.0,62,0.00,,,0.00,Wunderground v.1.15,2013-10-21 20:52:00,
2013-10-21 16:54:00,63.7,50.0,29.92,SW,216,4.0,5.0,61,0.00,,,0.00,Wunderground v.1.15,2013-10-21 20:54:00,
2013-10-21 16:55:00,63.7,50.4,29.92,WNW,298,4.0,5.0,62,0.00,,,0.00,Wunderground v.1.15,2013-10-21 20:55:00,
2013-10-21 16:56:00,63.7,50.4,29.92,WSW,257,3.0,6.0,62,0.00,,,0.00,Wunderground v.1.15,2013-10-21 20:56:00,
2013-10-21 16:57:00,63.6,50.3,29.92,WNW,289,3.0,6.0,62,0.00,,,0.00,Wunderground v.1.15,2013-10-21 20:57:00,
2013-10-21 16:58:00,63.6,50.3,29.92,SW,232,3.0,6.0,62,0.00,,,0.00,Wunderground v.1.15,2013-10-21 20:58:00,
2013-10-21 17:00:00,63.4,50.6,29.92,WNW,296,3.0,5.0,63,0.00,,,0.00,Wunderground v.1.15,2013-10-21 21:00:00,
2013-10-21 17:01:00,63.4,50.6,29.92,West,271,3.0,6.0,63,0.00,,,0.00,Wunderground v.1.15,2013-10-21 21:01:00,
2013-10-21 17:02:00,63.2,50.4,29.92,SW,233,3.0,6.0,63,0.00,,,0.00,Wunderground v.1.15,2013-10-21 21:02:00,
2013-10-21 17:04:00,63.1,50.3,29.92,NW,313,4.0,6.0,63,0.00,,,0.00,Wunderground v.1.15,2013-10-21 21:04:00,
2013-10-21 17:05:00,62.9,50.5,29.92,WSW,244,4.0,11.0,64,0.00,,,0.00,Wunderground v.1.15,2013-10-21 21:05:00,
2013-10-21 17:06:00,62.9,50.5,29.92,West,261,4.0,11.0,64,0.00,,,0.00,Wunderground v.1.15,2013-10-21 21:06:00,
2013-10-21 17:08:00,62.8,50.0,29.92,WNW,284,3.0,11.0,63,0.00,,,0.00,Wunderground v.1.15,2013-10-21 21:08:00,
2013-10-21 17:09:00,62.8,50.0,29.92,WSW,248,3.0,11.0,63,0.00,,,0.00,Wunderground v.1.15,2013-10-21 21:09:00,
2013-10-21 17:10:00,62.8,50.0,29.92,WNW,292,3.0,3.0,63,0.00,,,0.00,Wunderground v.1.15,2013-10-21 21:10:00,
2013-10-21 17:13:00,62.6,50.2,29.92,NW,309,3.0,7.0,64,0.00,,,0.00,Wunderground v.1.15,2013-10-21 21:13:00,
2013-10-21 17:14:00,62.6,50.2,29.92,West,264,3.0,7.0,64,0.00,,,0.00,Wunderground v.1.15,2013-10-21 21:14:00,
2013-10-21 17:15:00,62.6,50.2,29.92,SW,233,3.0,7.0,64,0.00,,,0.00,Wunderground v.1.15,2013-10-21 21:15:00,
2013-10-21 17:16:00,62.6,50.2,29.92,South,171,2.0,7.0,64,0.00,,,0.00,Wunderground v.1.15,2013-10-21 21:16:00,
2013-10-21 17:17:00,62.6,50.2,29.92,WSW,243,2.0,7.0,64,0.00,,,0.00,Wunderground v.1.15,2013-10-21 21:17:00,
2013-10-21 17:18:00,62.5,50.2,29.92,SSW,192,3.0,7.0,64,0.00,,,0.00,Wunderground v.1.15,2013-10-21 21:18:00,
2013-10-21 17:19:00,62.5,50.2,29.92,SW,234,3.0,7.0,64,0.00,,,0.00,Wunderground v.1.15,2013-10-21 21:19:00,
2013-10-21 17:21:00,62.5,50.2,29.92,NW,309,2.0,4.0,64,0.00,,,0.00,Wunderground v.1.15,2013-10-21 21:21:00,
2013-10-21 17:24:00,62.3,50.0,29.92,WSW,237,3.0,9.0,64,0.00,,,0.00,Wunderground v.1.15,2013-10-21 21:24:00,
2013-10-21 17:25:00,62.3,50.0,29.92,WSW,241,3.0,9.0,64,0.00,,,0.00,Wunderground v.1.15,2013-10-21 21:25:00,
2013-10-21 17:27:00,62.1,49.8,29.92,SSW,209,4.0,11.0,64,0.00,,,0.00,Wunderground v.1.15,2013-10-21 21:27:00,
2013-10-21 17:30:00,62.0,49.7,29.92,West,275,4.0,6.0,64,0.00,,,0.00,Wunderground v.1.15,2013-10-21 21:30:00,
2013-10-21 17:32:00,62.0,49.7,29.92,WNW,302,5.0,8.0,64,0.00,,,0.00,Wunderground v.1.15,2013-10-21 21:32:00,
2013-10-21 17:34:00,62.0,50.1,29.92,WSW,258,4.0,8.0,65,0.00,,,0.00,Wunderground v.1.15,2013-10-21 21:34:00,
2013-10-21 17:35:00,61.8,49.9,29.92,WNW,294,4.0,8.0,65,0.00,,,0.00,Wunderground v.1.15,2013-10-21 21:35:00,
2013-10-21 17:36:00,61.8,49.9,29.92,SSW,213,4.0,8.0,65,0.00,,,0.00,Wunderground v.1.15,2013-10-21 21:36:00,
2013-10-21 17:39:00,61.8,49.9,29.92,West,267,3.0,8.0,65,0.00,,,0.00,Wunderground v.1.15,2013-10-21 21:39:00,
2013-10-21 17:42:00,61.8,49.9,29.92,West,274,3.0,7.0,65,0.00,,,0.00,Wunderground v.1.15,2013-10-21 21:42:00,
2013-10-21 17:43:00,61.8,50.3,29.92,SW,217,3.0,7.0,66,0.00,,,0.00,Wunderground v.1.15,2013-10-21 21:43:00,
2013-10-21 17:44:00,61.8,50.3,29.92,WNW,302,2.0,7.0,66,0.00,,,0.00,Wunderground v.1.15,2013-10-21 21:44:00,
2013-10-21 17:46:00,61.7,49.8,29.92,SW,234,2.0,7.0,65,0.00,,,0.00,Wunderground v.1.15,2013-10-21 21:46:00,
2013-10-21 17:48:00,61.7,49.8,29.92,West,272,3.0,7.0,65,0.00,,,0.00,Wunderground v.1.15,2013-10-21 21:48:00,
2013-10-21 17:49:00,61.7,50.2,29.92,West,274,2.0,7.0,66,0.00,,,0.00,Wunderground v.1.15,2013-10-21 21:49:00,
2013-10-21 17:54:00,61.5,50.0,29.92,SW,223,3.0,9.0,66,0.00,,,0.00,Wunderground v.1.15,2013-10-21 21:54:00,
2013-10-21 17:55:00,61.5,50.0,29.92,West,261,3.0,9.0,66,0.00,,,0.00,Wunderground v.1.15,2013-10-21 21:55:00,
2013-10-21 17:59:00,61.4,49.9,29.92,WNW,298,3.0,9.0,66,0.00,,,0.00,Wunderground v.1.15,2013-10-21 21:59:00,
2013-10-21 18:00:00,61.4,49.9,29.93,West,278,3.0,5.0,66,0.00,,,0.00,Wunderground v.1.15,2013-10-21 22:00:00,
2013-10-21 18:01:00,61.4,49.9,29.93,West,264,3.0,6.0,66,0.00,,,0.00,Wunderground v.1.15,2013-10-21 22:01:00,
2013-10-21 18:04:00,61.2,50.2,29.93,North,0,3.0,8.0,67,0.00,,,0.00,Wunderground v.1.15,2013-10-21 22:04:00,
2013-10-21 18:05:00,61.2,50.2,29.93,West,280,4.0,8.0,67,0.00,,,0.00,Wunderground v.1.15,2013-10-21 22:05:00,
2013-10-21 18:07:00,61.0,50.4,29.93,WSW,250,4.0,8.0,68,0.00,,,0.00,Wunderground v.1.15,2013-10-21 22:07:00,
2013-10-21 18:11:00,60.6,50.0,29.93,West,272,5.0,5.0,68,0.00,,,0.00,Wunderground v.1.15,2013-10-21 22:11:00,
2013-10-21 18:14:00,60.3,50.1,29.93,WNW,299,4.0,5.0,69,0.00,,,0.00,Wunderground v.1.15,2013-10-21 22:14:00,
2013-10-21 18:15:00,60.3,50.5,29.94,NW,316,4.0,5.0,70,0.00,,,0.00,Wunderground v.1.15,2013-10-21 22:15:00,
2013-10-21 18:18:00,60.0,50.6,29.94,WNW,288,3.0,10.0,71,0.00,,,0.00,Wunderground v.1.15,2013-10-21 22:18:00,
2013-10-21 18:19:00,60.0,50.6,29.94,West,265,3.0,10.0,71,0.00,,,0.00,Wunderground v.1.15,2013-10-21 22:19:00,
2013-10-21 18:20:00,59.8,50.0,29.94,West,272,3.0,6.0,70,0.00,,,0.00,Wunderground v.1.15,2013-10-21 22:20:00,
2013-10-21 18:21:00,59.8,50.0,29.94,NW,308,3.0,6.0,70,0.00,,,0.00,Wunderground v.1.15,2013-10-21 22:21:00,
2013-10-21 18:24:00,59.5,50.1,29.94,WNW,282,2.0,11.0,71,0.00,,,0.00,Wunderground v.1.15,2013-10-21 22:24:00,
2013-10-21 18:26:00,59.5,50.1,29.94,NNW,339,3.0,11.0,71,0.00,,,0.00,Wunderground v.1.15,2013-10-21 22:26:00,
2013-10-21 18:27:00,59.4,50.0,29.94,WNW,288,3.0,11.0,71,0.00,,,0.00,Wunderground v.1.15,2013-10-21 22:27:00,
2013-10-21 18:28:00,59.4,50.0,29.94,WNW,302,3.0,11.0,71,0.00,,,0.00,Wunderground v.1.15,2013-10-21 22:28:00,
2013-10-21 18:29:00,59.4,50.0,29.94,NW,306,3.0,11.0,71,0.00,,,0.00,Wunderground v.1.15,2013-10-21 22:29:00,
2013-10-21 18:31:00,59.2,49.8,29.94,NW,322,2.0,3.0,71,0.00,,,0.00,Wunderground v.1.15,2013-10-21 22:31:00,
2013-10-21 18:32:00,59.2,49.8,29.94,NNW,335,2.0,3.0,71,0.00,,,0.00,Wunderground v.1.15,2013-10-21 22:32:00,
2013-10-21 18:34:00,59.2,49.8,29.94,NW,305,2.0,3.0,71,0.00,,,0.00,Wunderground v.1.15,2013-10-21 22:34:00,
2013-10-21 18:35:00,59.1,49.7,29.94,West,275,2.0,3.0,71,0.00,,,0.00,Wunderground v.1.15,2013-10-21 22:35:00,
2013-10-21 18:36:00,59.1,49.7,29.94,NNW,335,1.0,3.0,71,0.00,,,0.00,Wunderground v.1.15,2013-10-21 22:36:00,
2013-10-21 18:37:00,59.1,50.1,29.94,NNW,335,1.0,3.0,72,0.00,,,0.00,Wunderground v.1.15,2013-10-21 22:37:00,
2013-10-21 18:38:00,59.1,50.1,29.94,NW,311,1.0,3.0,72,0.00,,,0.00,Wunderground v.1.15,2013-10-21 22:38:00,
2013-10-21 18:41:00,58.9,49.9,29.94,WNW,296,1.0,1.0,72,0.00,,,0.00,Wunderground v.1.15,2013-10-21 22:41:00,
2013-10-21 18:43:00,58.8,49.8,29.94,WNW,296,1.0,1.0,72,0.00,,,0.00,Wunderground v.1.15,2013-10-21 22:43:00,
2013-10-21 18:44:00,58.8,49.8,29.94,WNW,296,1.0,1.0,72,0.00,,,0.00,Wunderground v.1.15,2013-10-21 22:44:00,
2013-10-21 18:46:00,58.8,49.8,29.94,WNW,285,0.0,3.0,72,0.00,,,0.00,Wunderground v.1.15,2013-10-21 22:46:00,
2013-10-21 18:50:00,58.6,49.6,29.94,NW,305,1.0,1.0,72,0.00,,,0.00,Wunderground v.1.15,2013-10-21 22:50:00,
2013-10-21 18:51:00,58.6,50.0,29.94,NW,313,1.0,1.0,73,0.00,,,0.00,Wunderground v.1.15,2013-10-21 22:51:00,
2013-10-21 18:53:00,58.6,50.0,29.94,NW,313,1.0,1.0,73,0.00,,,0.00,Wunderground v.1.15,2013-10-21 22:53:00,
2013-10-21 18:55:00,58.5,49.9,29.94,NW,315,1.0,6.0,73,0.00,,,0.00,Wunderground v.1.15,2013-10-21 22:55:00,
2013-10-21 18:56:00,58.5,49.9,29.94,North,359,1.0,6.0,73,0.00,,,0.00,Wunderground v.1.15,2013-10-21 22:56:00,
2013-10-21 19:01:00,58.1,49.5,29.94,NW,315,2.0,6.0,73,0.00,,,0.00,Wunderground v.1.15,2013-10-21 23:01:00,
2013-10-21 19:02:00,58.1,49.5,29.94,NNW,332,3.0,6.0,73,0.00,,,0.00,Wunderground v.1.15,2013-10-21 23:02:00,
2013-10-21 19:06:00,58.0,49.4,29.94,NW,304,3.0,6.0,73,0.00,,,0.00,Wunderground v.1.15,2013-10-21 23:06:00,
2013-10-21 19:07:00,57.8,49.2,29.94,NW,313,3.0,6.0,73,0.00,,,0.00,Wunderground v.1.15,2013-10-21 23:07:00,
2013-10-21 19:08:00,57.8,49.2,29.94,WNW,299,3.0,6.0,73,0.00,,,0.00,Wunderground v.1.15,2013-10-21 23:08:00,
2013-10-21 19:10:00,57.8,49.6,29.94,NNW,329,3.0,3.0,74,0.00,,,0.00,Wunderground v.1.15,2013-10-21 23:10:00,
2013-10-21 19:11:00,57.7,49.5,29.94,NW,319,2.0,3.0,74,0.00,,,0.00,Wunderground v.1.15,2013-10-21 23:11:00,
2013-10-21 19:12:00,57.7,49.5,29.94,NW,326,2.0,3.0,74,0.00,,,0.00,Wunderground v.1.15,2013-10-21 23:12:00,
2013-10-21 19:14:00,57.7,49.5,29.94,NW,325,2.0,3.0,74,0.00,,,0.00,Wunderground v.1.15,2013-10-21 23:14:00,
2013-10-21 19:15:00,57.5,49.6,29.94,WNW,299,2.0,3.0,75,0.00,,,0.00,Wunderground v.1.15,2013-10-21 23:15:00,
2013-10-21 19:16:00,57.5,49.3,29.94,WNW,299,2.0,3.0,74,0.00,,,0.00,Wunderground v.1.15,2013-10-21 23:16:00,
2013-10-21 19:21:00,57.4,49.5,29.94,North,349,1.0,6.0,75,0.00,,,0.00,Wunderground v.1.15,2013-10-21 23:21:00,
2013-10-21 19:22:00,57.2,49.0,29.94,NW,322,1.0,6.0,74,0.00,,,0.00,Wunderground v.1.15,2013-10-21 23:22:00,
2013-10-21 19:24:00,57.2,49.3,29.94,WNW,296,1.0,6.0,75,0.00,,,0.00,Wunderground v.1.15,2013-10-21 23:24:00,
2013-10-21 19:28:00,57.1,49.2,29.94,NW,312,1.0,6.0,75,0.00,,,0.00,Wunderground v.1.15,2013-10-21 23:28:00,
2013-10-21 19:29:00,57.0,49.2,29.94,WNW,301,1.0,6.0,75,0.00,,,0.00,Wunderground v.1.15,2013-10-21 23:29:00,
2013-10-21 19:33:00,56.8,49.0,29.95,West,280,1.0,1.0,75,0.00,,,0.00,Wunderground v.1.15,2013-10-21 23:33:00,
2013-10-21 19:35:00,56.8,49.0,29.95,North,350,1.0,4.0,75,0.00,,,0.00,Wunderground v.1.15,2013-10-21 23:35:00,
2013-10-21 19:37:00,56.7,48.9,29.95,NW,304,2.0,5.0,75,0.00,,,0.00,Wunderground v.1.15,2013-10-21 23:37:00,
2013-10-21 19:38:00,56.7,48.9,29.95,NW,305,2.0,5.0,75,0.00,,,0.00,Wunderground v.1.15,2013-10-21 23:38:00,
2013-10-21 19:41:00,56.5,49.0,29.95,South,189,2.0,2.0,76,0.00,,,0.00,Wunderground v.1.15,2013-10-21 23:41:00,
2013-10-21 19:43:00,56.4,48.9,29.95,West,274,2.0,2.0,76,0.00,,,0.00,Wunderground v.1.15,2013-10-21 23:43:00,
2013-10-21 19:45:00,56.4,48.9,29.96,West,278,1.0,2.0,76,0.00,,,0.00,Wunderground v.1.15,2013-10-21 23:45:00,
2013-10-21 19:46:00,56.4,48.9,29.96,WNW,296,1.0,2.0,76,0.00,,,0.00,Wunderground v.1.15,2013-10-21 23:46:00,
2013-10-21 19:47:00,56.4,48.9,29.96,WNW,299,1.0,2.0,76,0.00,,,0.00,Wunderground v.1.15,2013-10-21 23:47:00,
2013-10-21 19:48:00,56.2,49.1,29.96,WNW,299,0.0,2.0,77,0.00,,,0.00,Wunderground v.1.15,2013-10-21 23:48:00,
2013-10-21 19:53:00,56.1,49.0,29.96,WNW,298,0.0,0.0,77,0.00,,,0.00,Wunderground v.1.15,2013-10-21 23:53:00,
2013-10-21 19:54:00,56.1,49.0,29.96,NW,316,0.0,2.0,77,0.00,,,0.00,Wunderground v.1.15,2013-10-21 23:54:00,
2013-10-21 19:55:00,56.1,49.0,29.96,SE,134,0.0,2.0,77,0.00,,,0.00,Wunderground v.1.15,2013-10-21 23:55:00,
2013-10-21 19:57:00,55.9,49.1,29.96,West,280,1.0,2.0,78,0.00,,,0.00,Wunderground v.1.15,2013-10-21 23:57:00,
2013-10-21 19:59:00,55.9,49.1,29.96,WNW,289,1.0,6.0,78,0.00,,,0.00,Wunderground v.1.15,2013-10-21 23:59:00,
2013-10-21 20:00:00,55.8,49.0,29.96,NW,309,2.0,2.0,78,0.00,,,0.00,Wunderground v.1.15,2013-10-22 00:00:00,
2013-10-21 20:01:00,55.8,49.0,29.96,NW,309,2.0,2.0,78,0.00,,,0.00,Wunderground v.1.15,2013-10-22 00:01:00,
2013-10-21 20:03:00,55.8,49.0,29.96,NW,305,2.0,2.0,78,0.00,,,0.00,Wunderground v.1.15,2013-10-22 00:03:00,
2013-10-21 20:04:00,55.8,49.0,29.96,NW,313,2.0,7.0,78,0.00,,,0.00,Wunderground v.1.15,2013-10-22 00:04:00,
2013-10-21 20:08:00,55.6,48.8,29.96,NNW,328,3.0,7.0,78,0.00,,,0.00,Wunderground v.1.15,2013-10-22 00:08:00,
2013-10-21 20:09:00,55.5,49.1,29.96,NW,316,3.0,7.0,79,0.00,,,0.00,Wunderground v.1.15,2013-10-22 00:09:00,
2013-10-21 20:10:00,55.5,49.1,29.96,West,280,3.0,3.0,79,0.00,,,0.00,Wunderground v.1.15,2013-10-22 00:10:00,
2013-10-21 20:12:00,55.3,48.9,29.96,NW,313,3.0,3.0,79,0.00,,,0.00,Wunderground v.1.15,2013-10-22 00:12:00,
2013-10-21 20:14:00,55.3,48.9,29.96,North,356,3.0,4.0,79,0.00,,,0.00,Wunderground v.1.15,2013-10-22 00:14:00,
2013-10-21 20:17:00,55.2,48.8,29.96,NW,326,3.0,7.0,79,0.00,,,0.00,Wunderground v.1.15,2013-10-22 00:17:00,
2013-10-21 20:18:00,55.2,49.1,29.96,NW,323,3.0,7.0,80,0.00,,,0.00,Wunderground v.1.15,2013-10-22 00:18:00,
2013-10-21 20:20:00,55.2,49.1,29.96,WNW,284,3.0,3.0,80,0.00,,,0.00,Wunderground v.1.15,2013-10-22 00:20:00,
2013-10-21 20:22:00,55.0,48.9,29.96,WNW,285,3.0,5.0,80,0.00,,,0.00,Wunderground v.1.15,2013-10-22 00:22:00,
2013-10-21 20:23:00,55.0,48.9,29.96,NNW,340,3.0,5.0,80,0.00,,,0.00,Wunderground v.1.15,2013-10-22 00:23:00,
2013-10-21 20:26:00,54.9,48.8,29.96,NW,316,3.0,5.0,80,0.00,,,0.00,Wunderground v.1.15,2013-10-22 00:26:00,
2013-10-21 20:29:00,54.9,48.8,29.96,NW,305,3.0,5.0,80,0.00,,,0.00,Wunderground v.1.15,2013-10-22 00:29:00,
2013-10-21 20:30:00,54.9,49.2,29.96,WNW,302,3.0,3.0,81,0.00,,,0.00,Wunderground v.1.15,2013-10-22 00:30:00,
2013-10-21 20:35:00,54.6,48.9,29.96,NNW,329,3.0,9.0,81,0.00,,,0.00,Wunderground v.1.15,2013-10-22 00:35:00,
2013-10-21 20:36:00,54.6,48.9,29.96,NW,315,3.0,9.0,81,0.00,,,0.00,Wunderground v.1.15,2013-10-22 00:36:00,
2013-10-21 20:37:00,54.6,48.9,29.96,NNW,337,4.0,9.0,81,0.00,,,0.00,Wunderground v.1.15,2013-10-22 00:37:00,
2013-10-21 20:40:00,54.4,48.7,29.96,WNW,296,4.0,4.0,81,0.00,,,0.00,Wunderground v.1.15,2013-10-22 00:40:00,
2013-10-21 20:41:00,54.3,48.6,29.96,NW,311,5.0,8.0,81,0.00,,,0.00,Wunderground v.1.15,2013-10-22 00:41:00,
2013-10-21 20:42:00,54.3,48.6,29.96,North,356,5.0,8.0,81,0.00,,,0.00,Wunderground v.1.15,2013-10-22 00:42:00,
2013-10-21 20:44:00,54.3,48.6,29.96,NW,326,4.0,8.0,81,0.00,,,0.00,Wunderground v.1.15,2013-10-22 00:44:00,
2013-10-21 20:52:00,54.0,48.6,29.97,NW,320,4.0,6.0,82,0.00,,,0.00,Wunderground v.1.15,2013-10-22 00:52:00,
2013-10-21 20:53:00,53.8,48.4,29.97,NW,304,4.0,10.0,82,0.00,,,0.00,Wunderground v.1.15,2013-10-22 00:53:00,
2013-10-21 20:54:00,53.8,48.4,29.97,NNW,339,5.0,10.0,82,0.00,,,0.00,Wunderground v.1.15,2013-10-22 00:54:00,
2013-10-21 20:55:00,53.7,48.3,29.97,NNW,346,5.0,10.0,82,0.00,,,0.00,Wunderground v.1.15,2013-10-22 00:55:00,
2013-10-21 20:56:00,53.7,48.3,29.97,WNW,292,5.0,10.0,82,0.00,,,0.00,Wunderground v.1.15,2013-10-22 00:56:00,
2013-10-21 21:01:00,53.4,48.0,29.97,North,350,6.0,12.0,82,0.00,,,0.00,Wunderground v.1.15,2013-10-22 01:01:00,
2013-10-21 21:02:00,53.3,47.9,29.97,NNW,330,6.0,12.0,82,0.00,,,0.00,Wunderground v.1.15,2013-10-22 01:02:00,
2013-10-21 21:03:00,53.3,47.6,29.97,NW,319,6.0,12.0,81,0.00,,,0.00,Wunderground v.1.15,2013-10-22 01:03:00,
2013-10-21 21:07:00,53.1,47.4,29.97,WNW,296,5.0,12.0,81,0.00,,,0.00,Wunderground v.1.15,2013-10-22 01:07:00,
2013-10-21 21:08:00,53.0,47.3,29.97,WNW,292,5.0,12.0,81,0.00,,,0.00,Wunderground v.1.15,2013-10-22 01:08:00,
2013-10-21 21:09:00,53.0,47.3,29.97,NNW,343,5.0,12.0,81,0.00,,,0.00,Wunderground v.1.15,2013-10-22 01:09:00,
2013-10-21 21:10:00,53.0,47.3,29.97,NW,326,5.0,5.0,81,0.00,,,0.00,Wunderground v.1.15,2013-10-22 01:10:00,
2013-10-21 21:12:00,52.8,47.1,29.97,NW,306,4.0,5.0,81,0.00,,,0.00,Wunderground v.1.15,2013-10-22 01:12:00,
2013-10-21 21:13:00,52.8,47.1,29.97,WNW,285,4.0,5.0,81,0.00,,,0.00,Wunderground v.1.15,2013-10-22 01:13:00,
2013-10-21 21:16:00,52.8,47.1,29.97,NNW,330,3.0,6.0,81,0.00,,,0.00,Wunderground v.1.15,2013-10-22 01:16:00,
2013-10-21 21:17:00,52.7,47.0,29.97,NNW,332,3.0,6.0,81,0.00,,,0.00,Wunderground v.1.15,2013-10-22 01:17:00,
2013-10-21 21:20:00,52.7,46.4,29.97,WNW,294,2.0,2.0,79,0.00,,,0.00,Wunderground v.1.15,2013-10-22 01:20:00,
2013-10-21 21:21:00,52.7,46.4,29.97,NW,316,2.0,3.0,79,0.00,,,0.00,Wunderground v.1.15,2013-10-22 01:21:00,
2013-10-21 21:22:00,52.5,46.2,29.97,NW,319,2.0,3.0,79,0.00,,,0.00,Wunderground v.1.15,2013-10-22 01:22:00,
2013-10-21 21:23:00,52.5,46.2,29.97,NW,311,2.0,3.0,79,0.00,,,0.00,Wunderground v.1.15,2013-10-22 01:23:00,
2013-10-21 21:26:00,52.5,46.5,29.97,NW,311,2.0,3.0,80,0.00,,,0.00,Wunderground v.1.15,2013-10-22 01:26:00,
2013-10-21 21:29:00,52.4,46.1,29.97,NNW,330,1.0,10.0,79,0.00,,,0.00,Wunderground v.1.15,2013-10-22 01:29:00,
2013-10-21 21:33:00,52.2,45.5,29.98,NNW,335,3.0,8.0,78,0.00,,,0.00,Wunderground v.1.15,2013-10-22 01:33:00,
2013-10-21 21:34:00,52.2,45.2,29.98,NNW,347,3.0,8.0,77,0.00,,,0.00,Wunderground v.1.15,2013-10-22 01:34:00,
2013-10-21 21:38:00,52.1,45.1,29.98,NW,318,4.0,8.0,77,0.00,,,0.00,Wunderground v.1.15,2013-10-22 01:38:00,
2013-10-21 21:43:00,51.9,45.3,29.98,NW,325,3.0,7.0,78,0.00,,,0.00,Wunderground v.1.15,2013-10-22 01:43:00,
2013-10-21 21:44:00,51.8,44.8,29.98,NW,308,2.0,7.0,77,0.00,,,0.00,Wunderground v.1.15,2013-10-22 01:44:00,
2013-10-21 21:51:00,51.6,44.6,29.98,NW,316,3.0,5.0,77,0.00,,,0.00,Wunderground v.1.15,2013-10-22 01:51:00,
2013-10-21 21:52:00,51.6,44.6,29.98,NW,326,4.0,6.0,77,0.00,,,0.00,Wunderground v.1.15,2013-10-22 01:52:00,
2013-10-21 21:55:00,51.5,44.5,29.98,NW,319,4.0,8.0,77,0.00,,,0.00,Wunderground v.1.15,2013-10-22 01:55:00,
2013-10-21 21:56:00,51.5,44.5,29.98,WNW,294,3.0,11.0,77,0.00,,,0.00,Wunderground v.1.15,2013-10-22 01:56:00,
2013-10-21 21:58:00,51.5,44.5,29.98,NW,323,3.0,11.0,77,0.00,,,0.00,Wunderground v.1.15,2013-10-22 01:58:00,
2013-10-21 21:59:00,51.5,44.5,29.98,NW,322,3.0,11.0,77,0.00,,,0.00,Wunderground v.1.15,2013-10-22 01:59:00,
2013-10-21 22:02:00,51.3,44.3,29.99,NNW,332,4.0,4.0,77,0.00,,,0.00,Wunderground v.1.15,2013-10-22 02:02:00,
2013-10-21 22:06:00,51.3,44.3,29.99,NNW,328,3.0,4.0,77,0.00,,,0.00,Wunderground v.1.15,2013-10-22 02:06:00,
2013-10-21 22:08:00,51.3,44.3,29.99,NW,315,3.0,7.0,77,0.00,,,0.00,Wunderground v.1.15,2013-10-22 02:08:00,
2013-10-21 22:15:00,51.2,44.2,29.99,NW,304,3.0,6.0,77,0.00,,,0.00,Wunderground v.1.15,2013-10-22 02:15:00,
2013-10-21 22:16:00,51.2,44.2,29.99,NW,325,3.0,6.0,77,0.00,,,0.00,Wunderground v.1.15,2013-10-22 02:16:00,
2013-10-21 22:19:00,51.2,44.6,29.99,NNW,333,2.0,6.0,78,0.00,,,0.00,Wunderground v.1.15,2013-10-22 02:19:00,
2013-10-21 22:20:00,51.2,44.6,29.99,WNW,288,2.0,2.0,78,0.00,,,0.00,Wunderground v.1.15,2013-10-22 02:20:00,
2013-10-21 22:23:00,51.0,44.4,29.99,WNW,296,2.0,2.0,78,0.00,,,0.00,Wunderground v.1.15,2013-10-22 02:23:00,
2013-10-21 22:24:00,51.0,44.4,29.99,NW,322,1.0,2.0,78,0.00,,,0.00,Wunderground v.1.15,2013-10-22 02:24:00,
2013-10-21 22:25:00,51.0,44.4,29.99,NNW,346,1.0,6.0,78,0.00,,,0.00,Wunderground v.1.15,2013-10-22 02:25:00,
2013-10-21 22:26:00,51.0,44.4,29.99,NW,311,2.0,6.0,78,0.00,,,0.00,Wunderground v.1.15,2013-10-22 02:26:00,
2013-10-21 22:30:00,50.9,44.6,29.99,NNW,333,2.0,5.0,79,0.00,,,0.00,Wunderground v.1.15,2013-10-22 02:30:00,
2013-10-21 22:32:00,50.7,44.4,29.99,WNW,296,2.0,5.0,79,0.00,,,0.00,Wunderground v.1.15,2013-10-22 02:32:00,
2013-10-21 22:35:00,50.6,44.3,29.99,WNW,296,2.0,5.0,79,0.00,,,0.00,Wunderground v.1.15,2013-10-22 02:35:00,
2013-10-21 22:37:00,50.6,44.3,29.99,NNW,336,2.0,5.0,79,0.00,,,0.00,Wunderground v.1.15,2013-10-22 02:37:00,
2013-10-21 22:39:00,50.6,44.3,29.99,NW,312,2.0,5.0,79,0.00,,,0.00,Wunderground v.1.15,2013-10-22 02:39:00,
2013-10-21 22:40:00,50.4,44.1,29.99,WNW,299,2.0,2.0,79,0.00,,,0.00,Wunderground v.1.15,2013-10-22 02:40:00,
2013-10-21 22:42:00,50.4,44.8,29.99,NW,308,1.0,2.0,81,0.00,,,0.00,Wunderground v.1.15,2013-10-22 02:42:00,
2013-10-21 22:43:00,50.4,44.5,29.99,WSW,256,2.0,7.0,80,0.00,,,0.00,Wunderground v.1.15,2013-10-22 02:43:00,
2013-10-21 22:46:00,50.3,43.7,30.00,West,265,2.0,7.0,78,0.00,,,0.00,Wunderground v.1.15,2013-10-22 02:46:00,
2013-10-21 22:49:00,50.1,43.5,30.00,NW,316,3.0,8.0,78,0.00,,,0.00,Wunderground v.1.15,2013-10-22 02:49:00,
2013-10-21 22:50:00,50.1,43.5,30.00,NNW,332,3.0,4.0,78,0.00,,,0.00,Wunderground v.1.15,2013-10-22 02:50:00,
2013-10-21 22:53:00,50.0,43.7,30.00,West,275,3.0,4.0,79,0.00,,,0.00,Wunderground v.1.15,2013-10-22 02:53:00,
2013-10-21 22:57:00,49.9,43.6,30.00,NW,322,3.0,8.0,79,0.00,,,0.00,Wunderground v.1.15,2013-10-22 02:57:00,
2013-10-21 22:59:00,49.7,43.5,30.00,West,274,3.0,12.0,79,0.00,,,0.00,Wunderground v.1.15,2013-10-22 02:59:00,
2013-10-21 23:00:00,49.7,43.1,30.00,NW,311,4.0,4.0,78,0.00,,,0.00,Wunderground v.1.15,2013-10-22 03:00:00,
2013-10-21 23:01:00,49.7,43.1,30.00,NW,313,4.0,4.0,78,0.00,,,0.00,Wunderground v.1.15,2013-10-22 03:01:00,
2013-10-21 23:05:00,49.4,42.8,30.00,West,277,5.0,7.0,78,0.00,,,0.00,Wunderground v.1.15,2013-10-22 03:05:00,
2013-10-21 23:06:00,49.4,42.8,30.00,NNW,347,6.0,7.0,78,0.00,,,0.00,Wunderground v.1.15,2013-10-22 03:06:00,
2013-10-21 23:08:00,49.3,42.4,30.00,NNW,337,5.0,8.0,77,0.00,,,0.00,Wunderground v.1.15,2013-10-22 03:08:00,
2013-10-21 23:09:00,49.3,41.7,30.00,NW,309,5.0,8.0,75,0.00,,,0.00,Wunderground v.1.15,2013-10-22 03:09:00,
2013-10-21 23:11:00,49.1,41.5,30.00,North,353,4.0,7.0,75,0.00,,,0.00,Wunderground v.1.15,2013-10-22 03:11:00,
2013-10-21 23:14:00,49.0,41.4,30.00,NW,304,4.0,7.0,75,0.00,,,0.00,Wunderground v.1.15,2013-10-22 03:14:00,
2013-10-21 23:15:00,49.0,41.4,30.00,NNW,329,4.0,7.0,75,0.00,,,0.00,Wunderground v.1.15,2013-10-22 03:15:00,
2013-10-21 23:16:00,49.0,41.4,30.00,WNW,296,4.0,7.0,75,0.00,,,0.00,Wunderground v.1.15,2013-10-22 03:16:00,
2013-10-21 23:17:00,49.0,41.4,30.00,NNW,333,3.0,7.0,75,0.00,,,0.00,Wunderground v.1.15,2013-10-22 03:17:00,
2013-10-21 23:21:00,48.8,41.2,30.00,NNW,333,3.0,3.0,75,0.00,,,0.00,Wunderground v.1.15,2013-10-22 03:21:00,
2013-10-21 23:22:00,48.7,41.1,30.00,NW,323,2.0,8.0,75,0.00,,,0.00,Wunderground v.1.15,2013-10-22 03:22:00,
2013-10-21 23:24:00,48.7,41.1,30.00,NNW,347,2.0,8.0,75,0.00,,,0.00,Wunderground v.1.15,2013-10-22 03:24:00,
2013-10-21 23:28:00,48.5,40.9,30.00,NNW,339,2.0,8.0,75,0.00,,,0.00,Wunderground v.1.15,2013-10-22 03:28:00,
2013-10-21 23:29:00,48.5,40.6,30.00,WSW,247,2.0,8.0,74,0.00,,,0.00,Wunderground v.1.15,2013-10-22 03:29:00,
2013-10-21 23:30:00,48.5,40.2,30.00,NNW,332,2.0,3.0,73,0.00,,,0.00,Wunderground v.1.15,2013-10-22 03:30:00,
2013-10-21 23:32:00,48.4,40.1,30.00,WNW,298,3.0,3.0,73,0.00,,,0.00,Wunderground v.1.15,2013-10-22 03:32:00,
2013-10-21 23:35:00,48.2,39.6,30.00,North,359,2.0,5.0,72,0.00,,,0.00,Wunderground v.1.15,2013-10-22 03:35:00,
2013-10-21 23:36:00,48.2,39.6,30.00,North,359,2.0,5.0,72,0.00,,,0.00,Wunderground v.1.15,2013-10-22 03:36:00,
2013-10-21 23:38:00,48.2,39.9,30.00,NNW,340,2.0,5.0,73,0.00,,,0.00,Wunderground v.1.15,2013-10-22 03:38:00,
2013-10-21 23:43:00,48.1,39.5,30.00,NW,319,2.0,6.0,72,0.00,,,0.00,Wunderground v.1.15,2013-10-22 03:43:00,
2013-10-21 23:44:00,48.1,39.5,30.00,NNW,330,2.0,6.0,72,0.00,,,0.00,Wunderground v.1.15,2013-10-22 03:44:00,
2013-10-21 23:45:00,48.1,39.5,30.01,NNW,346,1.0,6.0,72,0.00,,,0.00,Wunderground v.1.15,2013-10-22 03:45:00,
2013-10-21 23:47:00,47.9,38.9,30.01,NNW,330,1.0,6.0,71,0.00,,,0.00,Wunderground v.1.15,2013-10-22 03:47:00,
2013-10-21 23:51:00,47.8,38.5,30.01,NE,44,2.0,2.0,70,0.00,,,0.00,Wunderground v.1.15,2013-10-22 03:51:00,
2013-10-21 23:54:00,47.8,37.7,30.01,NW,322,2.0,7.0,68,0.00,,,0.00,Wunderground v.1.15,2013-10-22 03:54:00,
2013-10-21 23:55:00,47.8,38.1,30.01,WSW,258,3.0,7.0,69,0.00,,,0.00,Wunderground v.1.15,2013-10-22 03:55:00,
2013-10-21 23:57:00,47.6,37.6,30.01,North,6,3.0,7.0,68,0.00,,,0.00,Wunderground v.1.15,2013-10-22 03:57:00,
2013-10-21 23:59:00,47.5,37.1,30.01,NW,315,3.0,7.0,67,0.00,,,0.00,Wunderground v.1.15,2013-10-22 03:59:00,